GEFSMW_500_meanwind_006.txt.gz
Wind_Speed
30 32 34 37 38 39 40 39 37 35 36 36 37 38 40 41 41 41 41 42 42 42 42 42 42 42 43 43 43 43 43 44 45 46 45 43 40 39 39 38 36 36 38
31 33 35 35 33 33 36 39 38 37 36 36 36 36 37 39 40 40 40 40 40 39 40 40 40 40 40 41 42 42 42 42 43 44 43 41 40 39 41 42 41 39 38
33 34 35 32 32 33 34 35 36 37 37 38 36 35 34 34 34 35 36 36 35 35 36 37 38 39 40 41 42 43 43 42 43 43 43 42 41 39 38 39 39 37 34
32 35 34 33 33 34 35 34 34 35 36 37 38 39 38 36 35 35 35 36 37 36 36 37 39 41 42 43 43 43 44 45 45 46 45 44 42 40 36 35 35 33 30
30 30 31 32 33 34 35 37 39 39 39 40 41 42 43 42 40 39 39 39 39 40 40 41 42 43 43 43 42 43 44 45 46 47 47 46 42 39 37 35 33 30 29
29 29 30 30 31 31 33 35 37 40 41 43 43 44 44 44 43 43 42 41 41 41 41 42 42 43 43 43 43 44 45 46 47 48 48 45 42 39 36 33 30 28 29
28 29 29 27 26 27 28 31 33 36 39 42 44 45 45 45 45 44 44 43 42 41 41 42 42 43 44 45 45 45 45 46 47 47 46 44 41 37 34 31 29 28 28
27 28 29 28 28 29 30 31 32 34 36 38 40 42 43 44 45 45 46 45 44 42 42 42 43 43 45 46 47 46 45 45 46 45 43 41 37 33 30 30 30 31 32
27 30 32 33 33 34 35 36 35 35 36 37 38 39 40 42 42 43 45 46 46 45 44 44 43 44 45 45 43 41 39 41 41 40 38 35 31 26 25 26 28 31 35
28 30 32 33 34 36 37 37 37 37 36 36 37 37 37 38 39 40 41 42 43 44 44 44 44 44 42 39 35 33 32 32 32 31 29 27 24 22 24 27 30 34 36
30 32 33 33 33 35 37 38 39 39 38 38 37 35 34 34 35 36 38 39 40 41 40 40 40 38 36 31 26 23 21 22 22 22 22 21 22 26 29 30 32 32 31
36 37 37 37 36 36 38 40 40 40 40 38 38 37 34 32 32 32 32 33 34 34 35 34 32 31 28 23 19 17 17 17 20 21 23 26 28 29 29 28 26 23 20
41 42 43 43 42 41 40 42 41 41 40 40 39 39 36 32 30 29 28 28 27 28 28 27 26 25 22 20 18 18 18 16 16 17 18 19 20 22 21 20 18 16 14
45 47 46 46 47 46 44 44 44 43 41 40 39 39 38 33 29 27 26 25 23 22 21 22 21 19 19 19 20 21 20 18 17 16 15 14 14 15 15 16 15 14 16
49 50 50 50 49 49 49 47 46 44 41 39 38 38 38 34 29 26 25 23 20 19 19 19 18 16 16 18 20 21 21 20 19 17 15 14 13 13 14 15 15 16 18
51 52 53 53 52 51 50 50 49 46 42 40 38 36 37 34 29 26 24 22 20 17 17 16 15 14 12 14 16 16 16 16 16 16 15 14 13 12 13 14 15 15 17
55 56 56 56 55 53 53 52 50 47 43 40 38 36 35 33 29 27 25 23 20 18 16 15 14 13 12 10 12 13 14 15 16 16 15 15 14 14 14 14 14 15 15
61 61 60 60 59 59 58 56 52 47 43 40 38 35 33 32 28 27 26 24 21 18 16 15 15 15 13 11 11 13 14 15 16 16 16 15 14 14 14 14 13 13 13
66 65 64 64 64 65 65 62 56 49 44 40 38 36 33 30 28 26 25 23 21 19 17 16 15 15 14 13 12 12 13 13 14 14 13 11 11 11 12 12 11 11 10
72 70 70 70 71 71 70 66 59 53 48 43 39 37 34 31 29 28 25 23 22 20 17 16 15 16 16 14 11 10 11 11 11 11 10 9 9 9 9 9 9 7 6
77 78 79 80 80 76 71 66 60 55 52 48 43 41 37 32 30 28 25 23 21 20 18 17 16 17 17 16 14 13 12 11 10 9 10 10 9 9 8 8 7 7 7
83 83 81 78 74 70 67 63 59 55 54 51 45 40 37 33 30 28 26 24 22 20 18 16 15 14 14 15 16 17 15 12 10 10 11 11 10 10 8 7 7 7 6
77 70 64 58 56 57 56 56 57 56 55 54 51 45 38 34 32 30 28 26 23 20 18 15 14 12 11 13 15 17 16 14 12 11 12 12 11 10 9 8 8 7 6
55 47 45 46 47 48 47 45 45 51 56 56 54 48 42 37 35 33 31 27 24 21 18 16 14 13 13 13 14 15 16 15 13 13 13 13 11 10 9 8 8 7 6
41 43 46 47 48 46 42 41 40 42 50 56 56 51 44 39 37 36 33 30 26 23 21 19 17 15 14 14 14 15 15 15 15 14 12 12 11 10 9 8 8 7 6
44 46 47 48 48 47 45 44 42 41 43 52 56 52 46 41 39 37 34 32 28 25 24 23 20 18 16 15 14 14 14 15 15 14 13 13 12 11 9 9 9 8 7

GEFSMW_500_meanwind_012.txt.gz
Wind_Speed
29 32 33 32 31 30 29 28 28 28 28 28 28 28 29 30 32 33 34 35 36 37 38 38 38 39 39 40 41 42 42 42 42 41 39 38 37 35 35 35 35 34 33
33 35 35 32 31 30 29 29 30 30 29 29 30 31 32 33 34 35 36 36 36 37 37 37 36 36 35 35 36 37 38 38 38 38 37 36 35 34 34 35 35 34 34
36 35 33 30 29 30 31 32 31 30 30 30 30 30 31 32 34 36 37 38 39 39 39 39 39 38 36 35 35 35 35 36 36 37 37 36 35 36 36 36 36 36 35
35 32 29 28 29 31 31 31 29 28 28 28 27 26 27 29 31 33 35 36 38 40 41 41 41 41 40 38 37 36 36 37 37 38 38 37 36 35 35 37 37 38 36
31 28 26 27 29 30 29 28 26 25 23 22 22 22 24 26 29 32 34 35 36 38 39 40 41 41 41 40 39 38 37 37 37 37 37 37 36 36 35 35 36 37 36
25 25 26 27 28 27 26 25 24 22 20 20 21 23 25 26 29 31 33 35 35 36 37 39 40 41 42 41 40 39 38 37 37 37 37 38 38 37 37 36 35 37 36
24 25 25 25 26 26 25 24 22 21 22 23 25 27 28 30 31 32 34 35 36 36 36 36 38 40 41 41 42 41 40 39 39 39 39 39 39 38 38 37 36 37 36
23 22 22 23 25 25 24 23 23 24 26 28 30 31 32 34 35 35 36 37 37 37 36 35 36 37 38 40 41 41 42 41 41 40 40 39 39 38 37 36 35 35 33
19 19 21 23 25 26 26 26 27 29 31 33 34 35 36 37 37 37 37 37 38 39 38 36 34 34 35 36 37 38 40 41 41 40 39 39 37 36 35 34 33 31 29
22 23 25 27 28 30 31 32 33 34 35 36 36 38 39 39 39 39 38 38 38 39 39 37 34 32 32 33 33 34 36 37 38 38 37 35 34 33 32 31 29 28 27
29 30 32 33 35 36 37 38 38 37 37 37 37 39 40 41 41 40 39 38 38 39 39 37 33 31 30 30 29 30 31 32 33 33 32 31 30 30 29 28 27 26 25
36 37 39 40 41 42 43 43 44 43 42 41 40 40 42 42 41 40 39 38 38 38 38 37 33 31 29 27 26 26 26 27 27 27 27 27 26 25 25 26 26 26 27
42 43 44 46 47 47 48 48 49 49 48 46 45 43 43 42 41 40 39 38 38 38 37 35 33 30 28 27 25 24 23 22 22 22 23 24 24 24 25 27 27 28 29
46 48 49 51 51 51 52 52 52 53 53 52 50 47 44 43 43 42 41 39 38 38 37 34 32 30 28 26 25 23 21 20 20 20 21 23 24 25 27 29 29 29 29
51 53 54 56 57 57 57 57 57 58 59 58 56 51 48 46 45 45 44 42 40 39 37 34 32 30 28 26 24 22 20 19 19 20 20 21 23 24 25 26 26 25 23
56 58 60 62 63 62 60 59 59 60 60 60 58 55 54 52 50 49 47 46 43 40 38 34 32 29 28 25 23 21 18 18 19 20 20 20 20 21 20 19 18 17 16
59 62 63 63 64 64 63 63 62 62 63 64 64 63 61 59 57 54 51 47 45 42 39 35 32 29 27 25 23 21 18 18 19 19 19 19 18 17 17 16 16 16 16
60 63 65 66 68 70 72 73 71 70 72 73 72 71 69 65 62 58 53 49 46 43 41 36 32 29 26 24 22 20 18 18 19 18 17 17 16 16 16 16 16 15 15
75 77 79 81 82 84 85 86 84 82 81 79 77 75 71 67 63 59 55 51 48 45 42 37 32 29 26 24 21 19 18 17 17 17 16 16 15 16 16 15 15 15 13
81 83 85 86 87 88 90 89 88 86 83 79 75 70 65 60 57 55 53 51 49 46 43 39 33 29 27 23 21 18 17 16 15 14 14 14 14 14 15 15 14 13 12
84 85 85 85 84 83 83 83 81 78 74 68 61 54 48 45 44 45 47 48 47 46 43 39 34 30 27 24 21 19 18 15 14 13 13 13 13 14 14 14 13 12 12
76 73 71 68 64 62 61 60 58 54 50 44 38 35 32 31 34 36 40 44 45 44 42 40 35 31 28 24 21 19 18 16 14 14 14 15 15 14 13 13 13 13 12
58 54 51 47 43 42 43 43 40 37 33 30 28 27 28 29 30 33 37 41 43 41 41 40 35 32 28 25 22 20 19 18 17 15 15 15 15 14 13 14 14 14 13
44 41 40 38 36 35 36 36 35 33 30 29 29 30 31 31 31 32 34 40 44 40 39 39 35 32 28 24 21 20 19 19 19 17 16 15 15 14 14 15 15 14 13
39 40 41 41 40 40 38 36 37 37 36 36 34 34 34 33 32 31 32 38 45 43 40 38 35 31 27 24 22 20 19 20 20 19 17 15 15 16 15 15 14 14 13
45 46 47 48 48 47 45 43 41 41 41 40 39 37 35 34 33 30 31 37 44 44 41 39 35 31 29 27 24 22 20 20 20 19 17 16 16 16 16 15 14 14 13

GEFSMW_500_meanwind_018.txt.gz
Wind_Speed
36 37 37 36 38 38 38 37 36 34 31 29 27 24 22 21 20 19 17 17 17 18 20 23 26 30 33 36 38 39 40 39 39 39 37 37 36 36 36 36 37 36 36
34 34 36 37 39 39 39 37 35 31 29 27 25 22 19 17 15 13 13 14 14 16 18 20 23 25 29 32 36 39 41 41 41 40 39 36 35 34 34 35 35 36 37
33 35 38 40 41 41 40 37 34 31 29 27 23 20 16 14 13 13 14 15 16 17 19 20 22 24 26 28 31 35 38 40 41 42 41 39 36 35 34 33 34 35 35
36 38 40 41 41 39 38 36 33 31 30 27 23 20 18 16 16 17 18 19 20 20 21 22 24 25 27 27 29 31 34 37 39 41 42 40 39 37 35 34 34 36 36
37 39 39 39 38 37 36 35 34 33 30 27 25 23 21 21 21 22 23 23 23 23 23 24 25 26 27 28 29 29 31 34 36 39 41 41 40 38 37 36 35 35 36
32 34 34 34 34 35 35 36 35 34 31 29 28 26 26 27 27 28 28 27 26 25 25 25 25 26 27 29 30 30 30 31 33 36 39 40 39 39 37 36 35 35 35
27 30 31 32 33 34 36 37 36 35 33 32 31 30 30 31 32 31 30 29 27 26 25 26 26 26 27 29 30 31 30 30 30 32 35 37 38 38 38 37 36 36 36
28 30 33 34 34 35 37 37 37 36 35 34 34 34 34 35 34 33 31 30 28 27 26 26 26 27 27 28 30 30 30 29 29 30 31 34 35 37 37 37 37 37 37
30 32 34 36 37 38 39 39 39 39 39 38 38 38 37 36 35 34 33 32 30 29 27 27 27 27 27 28 29 31 30 29 28 28 28 30 33 34 36 36 37 37 37
34 36 38 39 40 41 42 43 44 45 45 44 43 42 41 39 39 38 37 35 33 32 29 28 28 27 27 28 29 31 30 29 28 27 27 27 30 32 33 35 36 37 37
39 41 43 44 44 45 46 47 49 49 50 50 49 48 46 45 43 42 41 39 37 34 31 29 28 27 27 28 29 30 30 29 28 27 26 25 26 29 31 32 34 35 35
42 44 46 48 48 49 50 51 52 53 54 55 55 54 52 50 49 47 46 43 40 37 34 31 29 28 27 28 29 30 31 30 29 27 25 24 24 25 27 30 31 32 33
45 47 49 50 52 53 54 55 56 58 59 60 61 61 59 57 55 53 50 48 45 41 37 35 32 30 29 29 30 30 31 31 29 28 26 24 23 23 24 26 27 29 30
48 49 51 53 55 57 58 60 61 62 63 65 66 66 66 64 62 59 56 54 50 45 41 38 36 34 33 32 32 32 31 31 30 28 26 24 22 21 21 23 24 26 28
52 54 56 58 60 62 64 66 67 68 70 71 72 73 72 72 71 68 64 60 55 50 44 41 38 37 36 35 34 33 32 31 30 28 26 24 21 20 20 21 23 25 26
60 63 65 67 68 70 72 74 75 75 75 75 76 76 74 73 73 72 68 63 58 52 48 44 42 41 39 38 37 35 34 32 30 28 26 24 21 19 21 23 24 25 26
71 73 75 76 77 79 80 82 83 84 84 83 83 82 80 77 74 71 67 64 60 56 52 48 47 45 43 41 39 38 35 33 31 28 26 24 22 21 21 23 24 26 28
80 80 79 78 76 75 75 76 77 80 83 86 88 89 89 86 84 82 79 75 71 66 61 57 53 50 47 44 41 39 36 34 32 29 27 25 22 21 21 22 24 25 26
75 70 66 62 59 56 56 56 57 60 64 68 71 74 77 78 79 79 79 77 75 71 65 60 56 52 48 45 42 40 37 35 33 30 28 25 22 22 21 22 23 24 25
54 49 45 43 43 43 44 45 44 44 45 47 50 52 53 54 57 60 63 65 66 65 62 58 53 49 47 45 43 40 39 36 34 31 28 26 23 22 22 21 23 23 23
39 39 40 41 42 43 44 43 42 40 38 38 38 38 38 38 40 42 45 49 53 55 55 54 51 49 47 46 44 41 39 37 34 32 29 26 24 22 22 22 23 22 22
41 43 44 45 46 47 47 46 45 44 41 39 37 34 32 31 30 30 32 35 39 44 49 51 51 51 48 46 44 42 40 37 34 31 28 26 24 23 23 23 23 22 21
45 47 48 48 48 48 49 48 46 46 43 41 38 36 33 30 28 27 28 29 31 35 41 47 50 53 50 46 44 43 40 37 33 31 28 25 24 24 24 24 23 23 22
48 49 49 49 49 49 49 49 48 47 45 43 40 37 34 30 27 25 24 23 24 25 29 37 44 51 49 46 45 42 40 35 32 29 27 25 23 24 24 23 23 23 22
50 50 50 49 48 48 48 48 48 47 45 42 40 38 34 30 26 24 23 21 21 20 22 27 34 44 46 44 42 39 37 34 31 29 27 25 24 25 24 23 23 23 22
50 50 48 47 46 46 46 47 46 44 41 39 38 36 34 31 28 25 24 23 22 21 21 23 27 36 42 42 41 39 36 34 32 30 28 26 25 25 23 22 22 22 21

GEFSMW_500_meanwind_024.txt.gz
Wind_Speed
46 49 49 49 47 46 43 40 38 37 37 37 37 37 36 33 31 30 28 27 25 23 21 20 18 17 16 17 17 18 19 21 23 24 26 27 29 30 31 30 29 29 28
45 45 46 48 45 43 37 34 35 36 37 38 38 37 35 32 30 28 26 25 23 21 19 17 17 17 17 18 19 19 20 21 23 24 25 26 28 29 30 31 30 29 29
41 41 41 39 36 34 32 31 33 36 37 38 37 35 33 31 30 27 25 24 22 20 19 19 19 20 20 20 21 20 20 21 23 25 26 26 26 28 29 30 31 30 30
40 40 38 36 29 28 29 32 34 35 36 37 37 34 32 31 29 27 26 24 23 23 22 22 23 23 23 23 22 21 21 21 22 24 26 27 27 27 26 28 30 30 30
38 37 39 39 35 32 30 33 34 35 35 35 35 33 33 31 29 27 26 26 26 26 26 27 27 27 26 25 24 23 22 22 23 24 26 26 27 27 26 25 28 30 30
37 38 38 38 38 39 37 35 35 34 34 34 35 34 33 31 29 28 28 28 29 30 30 30 31 30 29 27 26 25 25 25 25 26 26 26 26 26 26 24 25 28 30
36 37 38 38 39 39 40 40 37 36 35 36 37 37 35 32 31 30 30 30 32 33 33 33 33 33 31 29 28 27 27 27 27 27 27 26 26 25 25 24 24 26 28
37 39 40 41 42 42 43 42 42 42 41 41 42 41 40 38 36 35 33 34 35 36 36 35 35 34 33 32 31 30 30 29 29 28 27 26 26 25 24 24 24 24 26
41 43 45 46 47 47 48 48 48 48 48 48 47 47 46 45 43 42 41 39 39 39 40 39 37 36 36 35 34 33 31 31 30 29 28 26 25 24 24 23 23 23 23
44 46 48 50 51 52 53 54 54 54 54 55 55 54 54 53 52 50 49 48 46 44 44 43 41 40 39 38 37 35 33 32 32 31 29 27 25 24 23 22 22 22 22
48 50 52 54 55 57 58 59 60 60 60 60 60 60 60 60 59 58 57 56 54 51 49 47 45 44 42 41 40 38 36 34 33 31 29 27 25 24 23 22 21 21 20
52 54 56 57 59 60 61 62 63 64 64 65 65 65 65 64 64 64 63 62 60 58 55 52 50 47 45 44 43 41 39 36 34 32 30 28 26 24 23 21 20 20 20
57 59 61 62 64 65 66 67 68 68 69 69 68 68 68 68 68 67 67 66 65 64 62 59 56 52 49 47 46 44 42 39 37 35 32 30 28 25 23 21 20 19 19
64 66 68 69 71 72 73 74 75 75 75 75 75 74 74 74 73 72 71 70 69 67 65 64 61 57 54 52 49 47 45 42 40 37 35 32 29 26 23 21 20 19 19
69 71 73 74 76 77 76 75 73 72 72 72 73 74 75 77 78 78 78 77 75 73 71 68 65 63 60 57 54 51 48 45 42 40 37 34 30 27 24 21 19 18 18
73 75 75 74 71 67 62 57 55 53 51 51 51 53 56 60 65 71 76 78 80 80 78 75 72 69 65 62 59 55 52 49 45 42 39 35 31 27 24 21 20 19 18
73 69 62 55 49 46 44 43 43 42 42 41 41 41 41 42 43 47 53 60 67 73 77 79 78 75 71 66 62 57 55 52 48 44 41 36 32 28 25 22 21 20 18
59 51 46 43 43 43 43 44 44 44 44 43 42 42 41 40 39 39 40 43 48 54 62 69 74 76 75 70 65 60 57 52 49 46 43 38 33 29 26 24 22 21 19
47 45 45 45 45 45 46 47 48 47 47 46 46 45 43 42 41 39 37 37 38 40 45 51 59 65 69 71 68 62 57 51 49 46 43 39 34 30 27 25 23 22 21
47 48 48 48 48 49 50 51 50 50 49 48 47 45 45 44 43 41 40 39 39 37 36 39 44 51 56 61 64 63 56 51 49 44 41 38 34 31 29 27 25 23 22
49 50 50 51 52 53 53 53 52 51 50 49 48 46 45 43 42 40 39 38 37 36 34 33 35 40 45 51 56 58 55 51 49 45 41 37 35 32 31 29 27 25 23
50 51 52 53 54 54 54 53 52 50 49 48 46 45 43 42 41 39 37 36 35 33 31 31 30 32 36 43 50 53 53 49 46 44 41 36 34 33 31 29 28 27 25
52 54 55 55 55 55 54 53 51 50 48 47 44 42 41 40 39 37 35 33 32 31 30 28 27 28 30 35 44 51 53 51 47 44 40 36 34 33 31 30 28 27 24
54 55 56 56 55 54 53 52 51 49 46 43 41 41 40 38 36 33 32 31 30 29 28 27 26 26 29 31 38 47 52 50 47 44 42 39 36 34 32 29 27 26 24
56 57 57 57 56 54 52 50 47 44 42 40 37 37 35 33 31 29 29 28 27 26 25 24 24 24 26 29 34 42 51 49 47 45 42 39 36 33 30 28 26 25 23
58 58 57 56 55 52 48 45 41 38 36 34 33 31 30 28 27 26 24 24 23 22 21 20 21 21 21 25 31 40 49 49 47 44 41 38 35 31 29 27 26 24 22

GEFSMW_500_meanwind_030.txt.gz
Wind_Speed
43 42 42 41 43 45 45 44 43 39 27 25 26 28 28 26 24 24 24 24 24 23 23 22 22 21 20 19 18 18 17 16 15 14 13 13 13 13 15 17 18 20 22
40 39 39 40 42 44 46 45 41 31 21 21 23 25 24 23 24 23 23 23 23 23 23 23 23 22 21 20 19 19 18 18 17 15 15 14 14 13 15 16 18 20 22
35 37 39 40 42 42 42 40 37 31 27 24 21 22 23 22 23 23 22 22 22 23 23 23 23 23 22 21 21 20 20 20 19 17 16 15 15 15 17 17 18 20 22
34 36 38 40 41 42 41 40 36 31 29 26 22 21 21 22 22 21 21 22 23 23 23 24 24 24 24 24 23 23 23 22 22 20 18 17 16 16 19 20 19 20 21
34 36 39 40 42 43 43 41 37 33 30 28 26 24 23 23 24 24 23 23 23 24 25 26 26 27 27 27 27 26 25 24 24 23 21 20 18 17 17 20 21 21 21
36 38 41 43 44 45 45 43 41 39 36 34 32 31 30 30 30 30 29 27 26 27 27 27 28 29 30 31 30 29 28 27 26 25 24 22 21 20 18 19 22 22 22
35 38 42 44 47 48 48 47 46 44 43 42 40 39 38 37 36 36 36 35 33 31 31 30 31 31 33 34 34 32 31 30 29 27 26 25 23 22 21 21 21 22 23
39 43 46 48 50 50 51 50 50 49 48 47 47 46 46 45 43 43 42 42 41 39 37 35 35 35 35 36 36 36 34 33 32 31 29 28 26 25 24 23 22 21 22
45 48 51 53 54 55 55 55 54 53 52 52 52 52 52 51 50 49 48 48 48 47 45 43 42 40 40 39 40 39 39 37 36 34 33 31 29 27 26 25 23 22 21
49 52 55 57 59 61 61 61 61 59 58 57 56 56 57 57 56 55 54 54 53 53 52 51 50 48 46 44 43 43 42 41 39 38 36 34 32 30 29 27 26 23 21
52 54 57 60 62 65 68 69 69 68 67 65 63 62 61 61 61 61 60 59 58 58 58 57 56 55 54 51 50 47 45 44 43 42 40 38 35 33 31 29 28 25 23
55 57 60 62 65 68 70 72 72 71 69 66 63 60 58 57 58 60 62 64 63 63 62 62 62 61 60 59 57 54 51 49 47 45 43 41 39 36 34 32 30 27 24
58 60 63 65 67 68 68 67 65 64 61 58 55 52 49 48 48 50 54 59 63 66 67 67 66 65 65 63 61 59 56 54 51 49 46 44 41 38 36 34 32 29 26
61 64 66 65 63 61 59 58 57 56 55 53 51 48 45 43 41 41 42 46 52 59 64 68 70 70 70 68 65 63 60 57 55 52 49 47 44 41 39 36 34 32 29
63 63 61 58 56 55 54 54 54 54 53 53 51 49 47 44 41 39 39 39 41 45 52 59 65 69 71 72 70 67 64 60 57 55 52 49 46 43 40 38 36 33 30
60 58 56 54 53 53 53 53 53 53 53 53 52 51 50 47 45 43 42 41 40 39 40 44 50 58 64 69 72 71 68 64 60 57 54 51 48 45 42 40 37 35 31
57 54 53 52 52 52 53 54 54 54 54 54 53 52 52 50 48 47 45 42 41 39 38 37 39 43 50 58 64 69 70 67 63 59 56 52 49 46 44 42 39 36 33
53 51 51 52 53 54 56 56 57 57 56 55 55 54 53 51 50 49 48 46 44 42 41 39 37 36 38 42 49 57 63 65 65 62 58 54 51 48 45 43 40 37 34
51 51 53 55 56 58 59 59 59 58 57 55 54 53 52 50 49 48 46 45 44 43 42 40 38 36 34 34 37 42 49 56 60 62 61 57 52 49 46 44 41 38 34
51 52 55 57 58 60 61 61 59 58 56 54 52 51 51 49 47 45 44 42 42 41 41 39 38 36 34 33 33 35 39 45 52 57 59 58 54 50 47 44 41 38 35
51 53 56 58 60 61 61 60 58 56 54 52 49 48 48 46 45 43 41 39 39 38 38 38 37 36 35 34 33 33 34 38 44 50 55 57 55 51 48 44 42 39 36
52 55 57 59 60 61 60 58 56 52 48 45 43 42 41 40 40 38 37 37 36 35 35 35 35 35 35 34 33 33 32 34 38 44 49 53 54 51 48 45 43 40 37
53 56 59 60 60 59 58 56 52 46 42 38 35 33 31 31 32 32 32 32 32 32 32 32 31 32 32 32 32 32 32 33 36 41 46 50 51 49 47 44 42 39 37
54 57 59 60 58 56 55 53 48 43 38 32 27 24 22 21 22 24 26 26 26 27 28 29 29 28 28 28 29 29 31 31 34 40 45 49 50 47 45 43 40 38 35
54 57 59 59 57 55 53 50 45 40 34 27 21 17 14 13 13 15 17 19 20 22 23 24 26 26 26 26 26 26 28 31 33 40 46 50 51 47 45 42 40 38 35
54 56 58 58 56 54 52 49 46 40 33 26 20 14 8 5 6 8 11 13 15 17 18 20 22 23 24 24 25 25 27 30 33 39 47 51 50 48 45 43 40 37 33

GEFSMW_500_meanwind_036.txt.gz
Wind_Speed
35 37 39 39 40 40 40 39 39 38 38 39 39 38 36 33 26 25 29 30 31 31 30 30 29 28 26 25 25 24 24 24 24 24 23 22 21 19 18 16 14 14 14
39 41 41 40 40 41 40 40 39 40 40 40 39 38 36 33 26 23 24 25 29 30 30 29 29 28 27 27 26 25 25 24 24 24 23 22 22 20 19 17 16 14 14
39 39 38 39 40 40 41 41 41 42 42 41 40 38 35 32 28 26 25 24 25 26 28 29 29 28 28 28 28 27 26 26 25 25 24 23 23 22 21 19 17 16 15
33 34 36 38 39 40 41 43 43 44 43 42 41 39 37 34 31 29 28 27 27 28 28 29 29 29 29 29 29 29 28 28 27 26 26 25 25 23 22 21 19 18 17
30 31 33 35 37 39 41 43 44 45 45 45 44 42 39 37 35 33 32 30 30 30 32 32 31 31 31 31 31 31 31 31 30 29 28 27 26 26 25 23 22 20 19
31 33 35 36 38 40 42 44 45 46 46 46 46 45 43 41 40 39 38 37 36 35 35 36 35 34 33 33 33 33 34 33 33 32 31 30 28 28 27 26 24 23 21
33 35 37 39 40 41 42 44 44 45 46 47 47 47 47 46 45 44 43 43 42 41 41 40 39 39 37 36 36 35 36 36 36 36 34 33 31 30 29 28 27 25 24
36 38 39 39 40 41 43 44 46 47 48 49 50 50 50 50 50 49 49 48 48 47 47 46 45 44 43 42 40 39 38 38 39 39 38 37 35 33 31 30 29 28 27
39 40 41 42 43 44 45 47 48 48 49 49 49 49 49 49 49 49 51 52 53 53 53 53 52 51 49 48 46 45 43 42 42 42 42 41 39 36 35 33 32 30 28
43 44 45 47 48 49 50 50 49 48 47 46 45 44 44 45 46 46 48 50 53 55 58 59 58 57 56 54 53 51 49 48 46 45 44 44 43 41 38 36 35 33 31
46 48 49 51 53 53 53 52 51 49 46 45 44 43 43 44 44 45 46 47 50 53 57 61 63 64 63 61 60 58 56 54 51 49 48 47 46 44 42 40 38 35 33
49 50 52 54 55 54 53 52 51 49 48 47 48 48 48 48 47 46 46 47 49 51 53 57 62 65 67 67 66 64 62 60 57 55 53 51 50 48 46 43 41 38 36
49 51 53 53 52 51 50 50 50 51 52 53 54 54 53 52 51 50 48 47 47 49 51 53 56 61 65 68 69 69 67 65 63 60 58 55 54 52 49 47 45 42 39
50 52 52 51 50 49 49 50 53 55 57 58 58 58 57 56 56 55 53 51 50 49 49 51 53 55 59 63 67 70 71 70 68 65 62 59 56 54 52 51 48 45 42
50 50 50 48 47 48 50 53 56 58 60 60 61 62 62 62 61 59 56 54 53 52 50 50 51 52 53 55 59 64 69 71 71 69 66 63 60 56 54 53 51 48 45
50 49 48 47 47 50 52 56 58 60 61 62 63 63 63 62 60 58 55 53 52 52 51 49 49 49 49 49 50 54 60 66 70 71 69 66 64 60 57 55 53 50 47
50 49 47 47 49 52 55 58 60 62 63 64 63 62 61 59 55 52 50 49 48 49 49 48 48 47 48 47 46 46 49 54 62 68 68 67 67 64 57 55 54 52 49
50 48 47 48 51 54 57 59 61 62 63 63 61 59 57 54 50 46 45 43 43 44 46 47 47 46 46 46 45 44 43 45 49 57 63 65 65 65 63 58 54 52 49
50 48 48 50 52 55 57 59 60 62 62 60 58 56 53 48 43 40 38 38 38 39 42 43 45 45 45 45 45 44 42 41 42 46 52 58 61 61 61 58 55 52 50
50 49 50 51 53 55 57 58 60 60 59 57 54 51 47 41 37 33 30 31 33 35 37 39 41 42 44 44 44 43 41 39 39 40 44 49 55 58 58 57 55 53 51
50 49 50 51 53 54 56 57 58 57 56 53 50 47 42 36 30 25 22 22 25 29 32 34 36 38 40 42 42 42 41 39 37 36 38 42 47 52 55 56 55 52 50
49 49 49 50 52 53 55 56 55 55 53 50 47 43 38 31 25 20 16 15 18 22 26 30 32 33 35 37 39 40 40 38 36 35 35 37 41 46 51 55 56 54 51
49 48 48 49 50 52 53 54 53 52 50 48 45 40 35 29 24 19 13 10 13 17 20 24 27 29 31 33 34 36 37 36 34 33 34 35 37 42 48 53 55 54 51
49 47 47 47 48 50 52 52 52 51 48 45 42 39 35 30 25 19 12 6 7 12 16 19 23 25 28 29 30 32 33 33 33 31 31 32 35 38 44 51 54 52 51
48 46 46 47 47 48 50 50 50 49 46 42 40 38 34 31 27 21 15 8 3 5 10 15 19 22 24 26 28 30 31 32 32 30 29 30 33 37 41 47 51 52 50
48 46 45 45 45 47 48 49 48 47 44 40 37 36 34 31 27 23 18 13 7 1 4 9 14 17 20 23 26 27 29 30 31 29 28 29 32 37 40 45 50 51 49

GEFSMW_500_meanwind_042.txt.gz
Wind_Speed
27 29 32 34 36 38 39 39 40 40 39 40 40 39 38 38 38 37 36 35 34 34 34 35 36 38 39 39 38 38 37 35 34 33 31 30 29 28 26 26 25 23 21
28 30 32 34 36 37 37 37 37 38 39 40 41 41 41 41 40 39 38 37 36 34 32 32 34 35 37 38 39 37 37 35 34 34 33 30 29 28 28 27 26 24 22
28 29 30 31 32 34 35 36 38 39 40 41 41 42 42 43 43 42 41 40 38 36 33 32 32 34 36 37 37 38 36 35 35 34 33 31 30 29 29 28 27 25 24
27 29 30 32 34 35 37 38 40 42 43 44 44 44 45 45 45 44 43 42 40 38 36 34 33 33 35 36 38 38 36 35 35 35 33 33 31 30 30 29 28 27 25
29 31 32 34 36 37 39 41 42 44 45 46 46 47 47 47 47 47 46 44 43 41 39 38 36 34 34 36 37 37 36 36 36 35 34 34 33 33 31 31 30 29 28
30 32 33 35 37 38 40 42 43 44 46 47 48 48 49 49 49 49 49 47 46 44 43 42 41 40 39 38 39 39 37 37 37 37 36 36 36 35 34 33 32 31 30
31 33 34 36 37 39 40 42 43 44 46 46 47 47 47 47 47 47 48 48 47 47 47 46 46 45 44 43 43 42 41 41 40 39 39 39 39 38 37 36 35 33 32
32 34 36 37 38 39 40 42 42 43 43 44 45 45 45 44 44 44 44 45 46 47 47 49 49 49 49 49 48 47 46 45 44 42 42 42 41 41 40 39 37 36 34
34 36 37 38 39 40 41 41 41 41 41 42 42 42 41 41 41 42 42 43 44 46 47 48 49 51 52 53 54 53 52 50 49 47 45 45 44 44 43 43 41 39 37
36 37 38 39 40 41 41 41 41 40 40 40 39 40 40 41 42 43 44 46 46 47 48 49 51 52 53 54 57 57 57 55 53 51 50 48 47 47 46 45 44 42 40
38 39 40 41 41 41 41 41 41 41 40 40 40 40 42 44 45 46 48 49 50 50 51 51 51 53 56 58 58 59 61 61 59 56 55 53 51 49 49 48 47 45 43
39 41 42 43 42 42 42 42 42 42 41 42 42 43 45 47 48 50 51 52 53 54 54 55 55 55 57 59 61 62 64 65 65 62 60 58 54 53 51 50 49 48 46
41 42 43 44 43 43 43 43 43 43 43 43 45 46 48 50 52 53 55 56 57 57 58 58 59 59 59 60 61 64 66 67 68 67 66 63 60 56 54 53 51 50 49
42 43 44 45 44 43 43 43 43 43 44 45 47 49 50 52 53 55 56 57 57 57 58 59 59 60 61 61 62 64 67 68 69 70 69 69 66 63 59 56 54 53 52
44 45 46 45 44 44 44 43 43 43 44 46 48 49 51 53 54 55 55 56 56 56 55 56 58 59 61 62 63 64 66 68 68 70 71 71 71 70 65 60 57 55 53
45 46 46 45 44 44 43 42 43 43 45 46 48 50 52 52 53 54 54 52 51 50 51 51 53 56 58 61 62 63 65 66 66 67 69 72 73 72 71 67 62 58 55
46 46 46 46 45 44 43 43 43 44 46 48 50 51 52 51 52 51 50 48 46 45 44 45 47 49 52 55 58 61 63 63 63 64 65 68 71 73 73 70 67 62 58
47 47 47 46 45 44 43 43 44 45 46 48 50 51 50 49 49 49 47 44 41 38 37 38 39 42 45 49 54 57 59 59 59 59 60 61 65 69 72 72 70 66 63
49 49 48 47 46 44 44 44 44 45 46 48 49 50 49 48 47 46 43 39 36 32 30 29 31 34 37 41 47 51 54 54 54 55 55 55 57 61 67 71 70 68 65
50 50 49 48 46 44 44 44 44 45 46 48 49 49 47 46 45 43 40 37 32 28 24 22 23 26 30 34 40 44 47 49 49 50 50 50 52 54 58 64 68 69 66
50 50 49 48 47 44 43 44 44 45 46 47 47 47 45 44 44 41 38 35 29 24 19 16 16 19 23 28 33 36 40 43 45 46 46 46 47 49 51 56 62 66 68
50 49 48 48 46 44 43 44 44 45 46 46 46 45 43 43 41 40 37 33 28 22 16 11 10 13 17 23 28 31 35 38 40 41 42 43 42 44 47 50 55 60 64
50 49 48 47 46 44 43 43 44 44 45 45 44 43 42 41 39 37 35 32 26 20 15 9 5 7 12 18 23 27 31 34 36 37 39 40 40 40 42 45 48 52 56
49 48 47 46 45 43 43 42 43 43 44 44 43 42 40 39 37 35 33 30 26 20 14 9 4 5 9 13 18 23 27 30 33 34 35 37 37 38 38 39 42 46 49
49 48 47 46 44 42 42 41 41 42 43 43 42 41 39 38 35 33 31 28 25 20 14 8 3 4 8 11 15 19 23 26 29 31 32 34 35 35 35 35 37 40 44
48 48 47 45 43 42 41 40 40 41 42 42 41 40 38 36 34 32 29 26 24 20 15 9 4 3 7 11 14 17 20 24 27 29 30 31 33 34 34 34 34 37 41

GEFSMW_500_meanwind_048.txt.gz
Wind_Speed
23 25 26 28 30 33 35 36 38 40 42 43 43 44 43 43 44 43 43 42 42 42 42 41 40 40 38 38 37 36 35 35 35 36 35 35 35 33 33 32 31 30 29
22 25 27 29 31 33 35 36 37 39 41 42 42 43 43 44 45 45 44 43 43 43 43 42 42 42 41 39 36 36 36 35 35 34 36 37 35 33 33 32 31 30 29
23 25 26 28 30 32 33 35 36 38 40 41 42 42 43 43 44 44 44 43 43 43 44 44 43 43 42 41 39 37 36 35 35 36 37 36 35 33 32 32 31 30 29
23 25 27 28 30 32 33 35 36 38 39 41 42 43 43 44 44 44 44 43 43 43 43 44 44 43 43 42 40 39 38 36 35 36 37 37 36 35 33 33 32 31 31
24 25 27 28 30 32 34 35 36 38 39 40 42 43 44 44 44 44 44 44 44 44 44 44 44 43 43 41 40 39 38 38 37 36 37 38 37 36 35 33 32 33 33
25 26 28 30 31 33 35 36 37 38 39 40 41 42 43 43 43 44 44 44 44 44 43 42 42 42 42 41 41 40 40 39 38 37 37 37 37 37 37 35 34 34 34
27 28 30 31 33 35 36 37 38 39 40 41 42 42 43 43 42 42 42 43 43 43 43 42 41 41 41 41 41 41 41 42 41 40 39 38 38 39 40 38 37 36 36
29 30 32 34 35 36 37 38 39 39 40 41 41 42 42 42 42 43 43 43 43 43 43 44 43 42 42 42 42 42 42 43 44 43 42 40 39 39 40 40 39 38 38
30 32 34 36 37 38 39 40 41 41 41 41 41 41 42 42 42 43 43 44 44 44 44 45 45 44 44 44 44 44 43 44 45 45 45 44 43 40 40 41 41 40 39
32 34 36 37 38 39 40 41 42 42 41 41 41 41 42 42 42 42 42 43 43 45 46 47 48 48 49 48 48 48 47 47 46 46 47 47 48 45 43 42 42 42 42
32 34 36 38 39 41 41 42 43 42 42 42 41 41 42 42 42 42 42 43 44 46 47 48 50 51 52 53 52 52 51 51 50 48 48 50 50 49 47 45 44 44 44
33 35 37 39 41 42 43 43 44 43 43 43 42 42 42 42 42 43 43 44 45 46 47 49 51 53 55 55 56 55 55 55 55 53 52 52 52 51 50 48 47 46 45
35 37 39 41 42 43 43 44 44 44 44 43 43 42 42 42 43 43 44 45 46 47 48 49 50 52 54 56 57 57 58 58 57 57 57 56 55 54 53 51 50 48 47
37 39 41 43 44 44 45 45 45 44 44 44 43 43 43 43 43 44 45 46 47 48 48 48 49 51 52 54 56 57 57 58 59 59 59 59 59 57 57 54 53 52 49
39 41 43 44 45 45 45 45 45 45 44 44 43 43 43 44 44 44 45 46 47 47 47 48 48 48 49 50 51 53 54 55 56 58 58 60 61 60 60 58 56 55 53
40 42 44 45 45 45 46 46 46 45 44 44 43 43 43 44 44 45 46 46 46 46 46 46 45 44 44 44 45 47 49 50 52 55 57 58 60 61 63 61 59 59 57
40 42 44 46 46 46 46 47 46 45 44 44 43 44 43 43 44 45 45 45 45 44 44 44 42 40 40 41 41 43 45 47 49 52 54 55 58 60 62 63 62 62 60
42 44 45 46 47 47 47 47 46 45 44 44 43 44 43 44 44 45 44 44 43 42 42 41 39 37 37 36 37 39 41 43 45 48 52 53 55 57 60 62 63 63 62
43 44 46 47 47 47 47 47 46 45 44 43 43 43 43 44 44 44 43 42 41 40 40 38 36 34 32 30 30 31 34 36 39 43 47 50 52 53 55 58 61 62 63
43 44 45 47 47 47 47 47 46 45 44 43 43 43 44 44 43 43 42 40 39 39 37 36 33 31 28 25 23 24 26 28 32 37 41 45 47 49 51 53 57 59 60
43 44 45 47 48 48 47 47 46 44 43 43 43 43 44 44 42 41 40 39 38 37 36 33 31 28 24 21 19 19 20 22 26 31 36 41 43 44 46 49 52 55 57
43 44 45 47 48 48 47 46 45 44 43 43 43 43 43 43 41 40 39 37 36 35 33 31 29 25 22 18 16 14 15 18 21 26 31 36 39 40 42 44 47 50 53
43 43 45 46 48 48 48 47 45 44 42 42 42 42 42 41 40 39 37 35 34 32 31 30 27 23 20 16 14 11 11 14 18 22 27 31 34 36 38 39 42 45 48
42 43 44 46 47 48 48 47 45 43 42 41 41 41 41 40 39 38 36 35 33 31 31 29 26 22 18 14 11 8 7 11 16 20 23 27 30 33 33 35 37 40 43
42 43 44 46 47 48 48 47 45 43 41 40 40 40 40 40 38 37 36 35 32 31 29 27 24 21 17 13 9 6 7 10 15 19 22 24 27 29 30 31 32 35 39
42 43 44 45 47 48 47 46 45 43 41 40 39 39 39 39 38 37 35 34 32 30 28 26 23 20 16 11 7 3 6 11 14 18 21 23 25 26 28 28 30 32 35

GEFSMW_500_meanwind_054.txt.gz
Wind_Speed
15 17 18 21 23 25 27 29 30 31 33 34 35 36 37 38 39 39 39 39 39 39 39 39 39 39 38 38 37 37 37 37 35 34 33 32 32 30 30 31 33 32 32
12 15 17 19 21 23 25 27 28 30 32 34 35 36 37 37 38 38 38 38 38 38 38 38 38 39 38 38 38 37 37 37 37 36 34 32 31 30 30 31 32 32 33
12 14 16 18 20 22 24 26 28 30 32 33 35 36 36 37 38 38 37 37 37 37 37 37 37 37 37 37 38 38 37 37 37 36 34 32 31 29 29 30 32 32 33
11 13 15 17 19 21 23 25 27 29 31 32 34 35 35 36 37 37 37 37 37 37 36 36 36 36 36 36 37 37 37 37 37 36 36 34 33 31 30 31 32 33 33
11 13 16 18 20 22 23 26 28 30 31 32 33 34 35 36 36 37 37 37 38 37 36 35 34 34 34 35 35 35 35 35 35 35 36 35 35 33 32 31 32 33 33
13 16 18 20 22 24 26 28 29 31 32 32 33 34 35 36 37 37 38 37 38 38 37 36 35 35 34 34 35 34 34 34 34 34 35 35 35 34 34 33 33 33 33
17 19 21 24 26 28 30 32 33 34 34 35 35 36 37 37 38 38 38 38 39 39 39 38 37 37 36 35 35 35 35 34 34 34 35 35 35 36 35 34 33 34 34
21 23 26 28 30 32 35 36 37 38 38 38 38 38 38 39 39 39 39 39 39 39 39 39 39 39 37 36 36 35 36 35 35 35 36 36 36 37 37 36 35 35 35
25 27 29 31 33 36 37 39 39 39 39 39 39 39 39 39 39 39 39 39 39 40 40 40 40 40 39 38 37 37 37 37 36 36 36 37 37 37 38 38 38 37 36
27 29 31 34 36 38 39 40 41 41 41 40 40 40 40 40 40 40 40 40 39 40 40 40 40 40 40 40 40 39 39 39 39 39 38 39 39 39 39 40 40 40 38
29 30 33 35 37 39 40 41 41 41 41 41 41 41 40 40 40 40 40 39 39 39 40 40 40 40 40 41 41 41 41 41 41 41 41 41 41 41 41 41 41 41 41
29 31 34 36 38 40 40 41 41 41 41 41 41 41 41 41 41 41 40 39 39 40 40 39 40 41 41 42 43 43 43 43 43 43 43 43 43 44 43 43 43 44 44
30 32 35 38 39 40 40 41 41 41 41 42 42 42 42 41 41 40 40 40 40 39 40 40 41 41 41 42 43 44 44 44 44 45 46 46 46 47 47 46 46 46 46
31 34 37 39 39 40 40 40 41 42 42 43 43 43 42 42 41 40 40 40 40 39 40 40 40 41 41 42 43 44 45 45 45 46 47 48 49 49 50 50 50 50 49
33 35 38 39 39 40 40 41 42 43 43 44 44 44 43 42 41 40 40 40 40 40 39 39 39 39 39 40 41 43 44 45 46 47 48 49 50 51 52 53 54 54 53
34 36 38 39 40 40 41 42 43 44 45 45 45 45 44 42 41 40 40 40 40 39 39 38 37 37 38 40 41 43 43 44 45 46 47 48 50 51 53 55 57 58 57
34 37 38 39 40 41 42 43 44 45 46 46 46 46 44 42 41 40 40 40 39 38 37 37 37 38 39 40 40 40 40 40 41 43 44 46 49 51 53 56 58 60 60
35 37 39 40 41 42 43 44 45 46 46 47 47 46 45 43 41 40 40 39 38 37 37 37 37 37 37 37 37 37 37 36 37 38 40 43 46 49 52 55 59 60 61
36 38 39 40 41 42 43 45 46 46 47 47 47 46 44 42 41 40 39 39 38 37 37 37 37 36 35 35 35 35 34 33 33 35 37 40 43 46 50 54 57 60 62
37 38 40 41 42 42 44 45 46 46 47 47 47 46 44 43 41 40 39 39 38 37 37 37 36 35 33 32 32 32 31 29 29 31 34 37 40 44 47 52 56 58 60
37 39 40 42 42 43 44 45 46 46 47 47 47 46 44 43 42 41 40 39 38 37 36 35 34 32 31 31 31 29 27 26 27 28 30 32 36 40 44 48 53 56 59
38 39 41 42 43 43 44 45 46 46 46 46 46 46 44 43 42 41 40 39 38 37 35 33 33 32 32 30 29 26 24 23 23 23 24 27 31 36 40 45 49 54 57
38 40 41 42 43 44 45 45 46 46 46 46 46 45 44 43 42 41 40 38 36 36 35 33 32 31 30 28 25 23 20 19 17 15 17 21 26 31 36 41 46 50 54
40 41 42 43 43 44 45 45 46 46 45 45 45 45 44 42 42 41 38 36 36 35 35 33 32 30 27 25 23 20 17 14 11 10 13 17 21 26 32 38 43 47 51
41 42 43 43 44 44 45 45 46 45 45 45 45 44 43 42 41 40 38 36 36 36 35 33 31 28 25 23 21 17 14 11 9 8 10 13 17 22 28 34 39 44 48
42 43 43 44 44 45 45 45 45 46 45 45 44 43 42 41 40 38 37 36 36 36 35 32 30 26 24 22 19 16 11 8 6 6 9 13 17 20 25 30 35 40 45

GEFSMW_500_meanwind_060.txt.gz
Wind_Speed
18 17 16 16 17 18 19 21 22 23 25 26 27 28 29 30 31 32 32 33 33 34 34 34 34 34 34 34 34 34 34 35 34 34 33 33 32 32 32 32 31 30 30
15 15 16 16 17 18 19 21 23 24 26 27 29 30 31 32 33 33 33 33 33 33 33 33 34 34 34 34 34 34 35 35 35 34 34 33 33 34 33 33 33 32 31
13 14 14 15 17 18 20 22 24 26 27 29 30 31 32 33 33 33 33 33 32 32 32 32 33 33 33 34 34 34 34 35 35 35 34 34 34 34 35 34 34 34 32
10 12 14 16 17 19 21 23 25 27 28 30 30 31 31 32 32 33 33 33 33 32 32 33 33 33 34 34 34 34 34 34 35 35 35 35 34 35 35 35 35 35 34
10 12 14 16 18 20 22 23 25 26 27 28 29 29 30 30 30 31 31 32 32 32 32 32 33 33 34 34 35 34 34 35 35 36 36 35 35 35 35 35 35 35 35
12 14 15 17 18 20 22 23 24 25 26 27 28 28 28 29 29 30 30 31 32 33 33 33 33 33 34 34 35 35 35 35 35 36 36 36 35 35 35 35 36 37 36
12 15 16 17 18 20 21 23 24 25 26 27 28 28 28 29 29 30 30 31 32 33 34 34 34 34 34 35 35 35 36 36 36 36 36 37 36 36 36 35 36 37 37
13 14 15 16 18 20 22 24 25 26 27 28 29 29 29 29 30 31 31 32 33 33 34 35 35 35 36 35 35 36 36 36 37 37 37 37 38 38 37 37 37 37 38
13 14 15 17 19 21 24 25 27 28 29 29 30 30 30 31 32 33 34 34 34 35 35 35 35 36 36 36 36 36 36 37 37 38 38 39 39 39 39 38 38 38 39
13 14 16 18 21 24 26 27 29 30 31 31 31 32 33 33 34 35 36 36 36 36 36 36 36 36 36 36 36 36 36 37 38 38 39 40 40 40 40 40 40 40 40
14 16 18 21 23 26 28 29 30 32 32 33 33 34 35 36 37 37 38 38 38 38 37 37 37 37 37 37 37 37 37 37 38 39 39 39 40 41 41 42 42 41 41
17 19 21 23 25 27 29 31 32 33 34 35 35 36 37 38 38 39 40 40 39 39 39 38 37 37 37 37 37 37 37 37 38 39 39 40 41 42 42 42 43 43 43
19 21 23 25 27 29 31 32 34 35 36 37 37 38 39 39 40 41 41 41 40 40 40 38 37 37 36 37 37 37 36 37 37 38 39 40 41 42 43 44 44 45 45
21 23 24 26 28 30 32 34 35 36 37 38 39 39 40 41 41 42 42 42 41 41 40 39 38 37 37 37 36 36 36 36 37 38 39 40 41 42 44 45 45 46 47
23 24 26 27 29 31 33 35 37 38 39 39 40 41 42 42 43 43 43 43 42 41 40 39 39 38 37 37 36 36 37 37 37 37 38 40 41 42 44 45 46 47 48
24 25 26 28 31 33 35 37 38 39 40 40 41 42 43 43 44 44 44 44 43 42 41 40 39 38 38 37 37 37 37 37 37 38 39 40 41 42 44 45 47 48 49
24 26 28 30 32 34 37 38 39 40 41 41 42 43 43 44 44 45 45 44 44 43 42 41 40 39 38 38 38 37 37 36 37 37 38 39 40 41 43 45 47 49 51
26 27 29 31 34 36 38 39 40 41 41 42 43 43 44 44 45 45 45 45 44 43 42 41 40 39 39 38 37 37 36 36 36 37 38 38 39 40 42 44 46 49 52
27 28 30 33 35 37 38 40 41 41 42 43 44 44 44 45 46 46 46 45 44 43 42 41 40 39 39 38 37 36 35 35 35 36 37 37 38 39 41 43 45 48 51
28 30 32 34 36 38 39 40 41 42 43 43 44 45 45 46 46 47 46 45 44 43 42 41 41 40 38 37 36 36 35 34 33 34 34 35 36 37 39 42 44 46 50
30 31 34 36 37 39 40 40 42 43 43 44 45 46 47 47 47 47 46 45 44 43 42 41 40 39 38 37 36 35 34 32 31 31 31 31 33 34 36 39 42 46 49
32 33 35 37 38 39 40 41 42 44 45 46 46 47 47 48 47 46 46 45 43 42 41 40 39 39 38 37 35 34 32 31 29 28 28 28 30 32 34 37 40 44 47
33 35 37 38 40 40 41 42 43 45 46 47 48 48 48 48 47 46 45 44 43 41 41 40 39 38 37 36 33 31 30 28 27 25 25 25 26 27 29 33 36 41 45
35 37 38 40 41 42 42 44 45 46 47 49 49 49 49 48 47 46 45 43 41 40 40 39 38 37 36 34 31 29 27 26 24 23 22 22 21 22 24 27 30 35 41
37 38 39 41 42 43 44 46 47 48 49 50 50 50 48 47 46 45 44 42 40 39 39 38 37 36 34 33 30 27 25 24 22 20 18 17 16 17 19 22 25 30 34
38 40 41 42 43 44 46 48 49 50 51 51 50 49 47 46 44 44 42 41 39 39 38 37 36 34 33 31 29 26 23 22 20 16 15 13 13 13 13 16 20 24 29

GEFSMW_500_meanwind_066.txt.gz
Wind_Speed
13 12 12 11 11 11 11 12 12 13 15 16 18 20 21 22 23 23 24 24 24 24 24 25 25 26 26 27 27 27 28 29 29 30 30 31 31 32 32 33 33 33 33
11 10 10 9 10 9 10 11 12 14 16 18 20 21 23 24 24 24 24 24 24 24 24 24 25 25 26 27 27 28 28 29 29 30 30 31 32 33 33 34 34 34 34
9 8 8 9 9 10 11 12 15 17 19 21 22 23 24 25 25 25 24 24 24 24 24 24 25 25 26 27 28 28 29 29 30 30 31 32 33 33 34 34 35 35 36
6 6 7 8 9 10 12 14 16 19 20 22 23 23 24 24 24 24 24 23 23 23 23 23 24 25 26 27 28 28 29 30 30 31 31 32 33 34 34 35 36 36 36
4 6 8 9 10 12 14 16 18 20 21 22 22 22 23 23 23 23 23 23 22 22 22 23 24 25 26 27 28 29 29 30 31 31 32 33 33 34 35 36 37 37 37
6 7 9 11 12 14 15 17 19 20 21 21 21 21 22 22 22 22 22 22 23 23 23 24 25 26 27 27 28 29 30 30 31 32 32 33 34 35 36 37 38 38 39
9 10 11 12 14 15 16 18 19 20 20 20 21 21 21 21 22 22 22 23 24 25 25 26 26 27 28 28 29 30 31 32 32 33 34 35 35 36 37 38 38 39 40
11 12 13 13 14 16 17 18 19 19 20 20 21 21 22 22 23 23 24 25 25 26 27 27 28 28 29 30 31 31 32 33 33 34 35 36 37 37 38 39 40 40 40
13 14 14 15 16 17 18 18 19 19 20 21 22 23 23 24 24 25 25 26 27 28 29 29 30 31 31 31 32 32 33 33 34 35 36 37 37 38 39 39 40 41 41
14 14 15 16 17 17 18 19 19 20 21 22 23 24 24 25 26 26 27 28 29 30 30 31 31 32 33 33 33 33 33 34 34 35 36 36 37 38 39 39 40 41 42
14 15 16 16 17 18 18 19 19 21 22 23 24 25 26 27 28 28 29 29 30 31 32 33 34 34 34 34 34 34 34 35 35 35 36 36 37 38 38 39 40 40 41
14 15 16 17 17 18 18 19 20 22 23 25 26 27 28 29 29 30 31 31 32 33 34 35 36 36 36 36 36 36 36 36 36 37 37 37 37 38 39 39 40 41 41
15 15 16 17 18 18 19 20 21 23 25 26 27 28 30 31 31 32 33 34 35 36 37 37 38 38 38 37 37 37 37 37 37 37 37 37 37 37 38 40 40 41 42
15 16 16 17 18 19 20 21 23 25 26 28 29 30 31 32 33 34 35 37 38 38 39 40 40 40 39 38 38 38 38 37 37 36 36 36 37 37 38 39 40 41 42
16 16 17 18 19 20 21 23 24 26 28 29 30 31 33 34 35 36 38 39 40 41 41 41 41 40 39 38 38 38 37 37 37 37 37 37 37 38 39 39 40 41 42
17 17 18 19 20 21 23 24 26 27 29 30 31 33 34 36 37 39 40 41 42 42 43 42 41 40 40 39 39 38 37 36 36 36 36 37 37 38 39 40 41 42 43
18 18 19 20 22 23 24 26 27 29 30 32 33 34 36 38 40 41 42 43 43 44 43 42 41 40 40 39 39 37 36 35 35 35 35 36 37 37 38 39 40 42 43
19 20 21 22 23 24 26 27 28 30 31 33 34 36 38 40 41 43 44 44 44 44 43 42 41 40 40 39 38 36 35 34 34 34 33 34 35 36 37 38 39 40 42
20 21 22 23 25 26 27 28 30 31 33 34 36 37 39 41 43 44 45 45 45 44 43 42 41 40 39 38 36 34 33 33 33 33 33 32 33 34 35 37 38 39 41
21 22 23 24 26 27 29 30 32 33 34 35 37 38 40 43 44 45 46 46 45 44 43 42 41 39 37 36 35 34 33 32 32 32 32 32 32 33 34 35 37 39 41
23 24 25 26 28 29 30 32 33 34 35 36 38 40 42 44 46 47 47 46 45 43 42 41 40 38 36 35 34 33 33 32 31 31 31 31 31 32 33 35 36 37 39
26 27 28 29 31 32 33 34 35 36 37 37 39 42 44 46 48 48 47 46 44 43 41 39 38 37 35 34 33 33 32 30 29 29 29 29 29 30 31 32 33 35 36
29 30 32 33 34 35 35 36 37 38 39 40 42 43 46 47 48 48 47 46 45 42 40 38 37 35 35 33 32 32 31 30 28 28 27 27 27 27 27 28 29 31 34
32 33 34 35 36 37 38 38 40 41 42 44 44 45 47 48 48 48 47 46 44 41 40 38 36 35 34 33 32 31 30 28 27 26 26 25 24 24 23 23 24 26 30
34 35 37 39 39 40 41 42 42 43 45 46 47 47 48 48 48 48 47 45 43 41 39 37 35 34 33 32 31 30 28 27 26 25 24 23 21 20 21 21 21 23 26
37 38 40 41 42 43 44 45 45 46 47 48 48 49 49 49 49 48 47 45 42 40 38 36 35 33 32 31 30 29 27 26 25 23 22 20 19 19 19 19 20 21 23

GEFSMW_500_meanwind_072.txt.gz
Wind_Speed
12 13 12 13 11 11 11 11 11 12 12 13 15 16 16 17 18 18 19 20 20 20 21 21 21 21 21 21 22 23 23 24 24 24 25 26 26 27 27 27 27 28 29
10 11 10 10 10 11 10 10 11 12 13 14 15 16 17 17 18 18 18 19 20 20 20 20 21 21 21 21 21 22 23 24 24 25 26 26 27 27 28 28 29 29 30
8 8 7 7 8 8 9 10 11 12 12 13 15 16 17 17 18 18 18 19 19 19 20 20 20 21 21 21 21 21 22 23 24 24 25 26 27 28 29 29 30 30 31
4 5 6 7 7 8 9 9 10 11 12 14 16 17 17 18 19 19 19 19 19 20 20 21 21 21 21 22 22 22 23 23 24 24 25 26 27 28 29 30 31 31 31
2 3 4 5 6 6 7 8 10 11 13 15 16 17 19 19 20 20 21 21 21 21 22 22 23 23 23 24 24 24 24 24 25 26 26 27 28 28 29 30 32 32 32
2 2 3 4 6 7 8 9 11 13 14 16 17 18 20 21 21 22 22 23 23 23 23 23 24 25 25 25 26 26 26 27 27 27 28 28 29 29 30 31 32 33 34
4 4 5 6 8 9 10 10 12 14 15 17 18 19 20 21 22 23 24 24 24 24 24 24 25 25 26 27 28 28 29 29 29 30 30 30 31 31 32 33 33 34 35
6 7 8 8 9 10 11 12 14 15 16 17 19 20 21 22 23 23 24 24 25 25 25 26 26 27 28 29 29 30 30 31 31 32 32 32 33 33 34 34 35 35 36
9 10 10 10 10 12 13 14 14 16 17 18 19 21 22 23 24 24 25 25 25 26 26 27 28 29 30 31 32 32 32 33 33 33 34 34 34 34 35 35 36 37 37
11 11 12 12 13 13 14 14 15 16 18 19 20 21 22 23 24 24 25 26 26 27 28 29 30 31 32 33 33 34 34 34 35 35 35 36 36 37 37 37 37 37 38
13 13 13 14 14 14 15 15 16 18 19 20 21 22 23 24 24 25 26 27 27 29 30 31 33 34 34 35 35 36 36 36 36 37 37 37 38 38 38 39 39 39 39
16 16 16 16 16 16 16 16 17 18 20 21 22 23 23 24 25 26 27 28 29 30 31 33 34 35 36 37 37 37 37 37 37 37 37 37 38 38 39 39 39 39 40
17 18 17 17 17 17 17 17 18 19 20 21 22 24 25 26 27 28 29 30 31 32 33 35 36 37 38 38 38 39 38 38 37 37 37 37 38 38 38 39 39 39 40
18 18 18 18 18 18 18 19 19 20 21 22 24 25 26 27 28 29 30 31 32 33 35 36 38 39 39 39 39 39 38 37 37 37 37 37 37 37 37 38 39 39 40
20 19 19 19 19 19 19 20 21 22 23 24 25 26 27 28 29 31 32 33 34 35 37 38 40 40 40 40 39 39 38 37 37 36 36 36 36 36 36 37 38 39 39
21 20 20 20 20 20 20 21 22 23 24 26 27 28 29 30 31 33 34 35 36 38 39 40 41 41 41 41 40 39 38 37 36 36 35 35 35 35 35 36 36 37 38
21 21 21 20 21 21 22 22 23 25 26 28 29 30 31 32 33 35 35 36 38 39 41 41 42 42 42 41 41 39 38 37 37 36 35 34 34 34 34 34 35 35 36
21 22 22 22 22 23 24 24 25 26 27 29 30 31 33 34 36 37 38 39 40 42 42 42 42 42 41 41 40 40 39 37 36 35 34 33 33 33 33 33 33 33 34
22 23 23 23 23 24 25 26 26 27 29 30 32 33 35 36 38 39 40 41 43 44 43 43 43 42 41 41 40 40 38 37 35 35 34 33 33 32 32 32 32 32 33
24 24 25 25 25 26 26 27 28 29 31 33 34 35 37 38 40 41 42 43 44 45 44 44 43 42 41 41 41 40 39 37 36 35 34 33 33 32 32 32 32 32 33
26 27 27 27 27 28 28 28 30 31 33 35 36 37 40 41 42 43 44 45 46 46 46 45 44 42 42 41 40 40 38 36 35 34 33 32 32 31 31 31 31 31 32
28 28 29 30 29 30 30 31 32 34 35 37 38 40 42 44 44 44 45 47 47 47 46 45 44 42 41 40 39 39 37 36 35 33 32 31 31 30 30 30 30 30 31
30 30 31 32 32 32 33 34 35 37 38 40 41 43 44 46 46 46 47 47 48 47 47 46 44 44 42 40 39 38 37 35 34 32 31 31 30 29 29 29 29 29 28
33 33 34 34 35 35 36 37 38 40 41 43 44 45 46 48 48 49 49 49 50 49 47 46 45 44 41 40 39 38 36 34 33 32 31 30 29 28 27 27 26 26 27
35 36 36 37 37 38 39 40 41 42 44 45 46 47 49 50 50 49 50 50 49 49 47 46 45 43 41 39 38 37 36 34 33 31 30 28 27 27 26 25 25 24 24
37 38 39 39 41 42 43 43 44 46 47 48 49 51 52 52 51 51 51 51 50 48 46 45 43 42 40 39 37 36 35 33 32 30 29 28 27 26 26 25 24 23 23

GEFSMW_500_meanwind_078.txt.gz
Wind_Speed
9 9 8 6 7 7 6 6 5 5 6 6 6 7 7 8 9 10 11 12 12 12 13 13 13 13 13 14 14 14 15 15 16 17 18 19 20 21 21 22 23 24 24
8 8 7 6 6 5 5 3 3 4 5 5 6 6 7 8 8 9 10 11 11 11 12 13 13 13 13 13 13 14 15 15 15 16 17 18 19 20 21 22 23 24 25
7 8 6 5 4 3 3 3 3 4 4 5 6 6 7 8 8 9 9 10 10 11 12 13 13 13 13 14 14 15 16 16 16 16 17 18 19 20 21 22 23 24 25
6 5 4 3 3 2 2 2 3 4 4 5 5 6 7 8 9 9 10 10 11 12 13 14 14 14 14 15 15 16 16 17 17 17 17 18 19 20 21 22 23 24 25
5 4 3 2 2 2 2 3 3 3 4 4 5 6 7 8 9 10 11 11 12 13 14 15 15 16 16 16 17 17 18 19 19 20 20 20 21 21 22 23 24 24 25
4 3 3 1 1 2 2 3 3 3 4 4 5 7 8 9 10 10 11 12 13 14 15 16 16 17 18 18 19 19 20 21 21 22 23 23 23 24 24 25 26 26 26
3 2 1 1 2 2 2 3 3 4 4 5 6 7 8 10 10 11 13 14 15 16 16 17 17 18 19 20 21 22 22 23 23 24 24 25 26 26 27 27 28 29 29
2 2 1 2 2 2 3 3 3 4 5 6 7 8 9 10 11 13 14 15 16 17 18 18 19 20 21 22 23 24 25 26 26 26 27 27 28 28 29 30 31 31 32
0 1 2 2 3 3 3 4 4 5 6 7 8 9 10 12 13 14 16 17 18 19 20 20 21 22 23 24 26 27 28 28 28 28 29 30 30 30 31 32 32 33 34
1 2 2 3 3 3 3 4 5 6 7 8 9 10 12 13 14 16 17 18 19 20 21 22 23 24 25 26 28 29 29 29 29 30 30 31 32 32 32 33 34 34 35
1 2 2 2 3 3 4 5 6 7 8 10 11 12 14 15 16 17 19 20 21 22 23 24 26 27 28 29 30 31 31 31 31 31 32 32 33 33 34 34 35 35 36
2 2 2 3 4 5 6 7 8 9 10 12 13 15 16 17 18 19 21 22 23 24 25 26 27 29 30 31 32 33 33 33 33 33 33 33 33 33 34 34 35 36 36
5 5 5 5 6 7 8 9 10 11 13 14 15 17 18 19 20 21 23 24 25 26 27 28 29 30 32 32 33 34 34 34 33 34 34 34 34 34 34 34 34 35 35
7 7 8 8 8 9 10 11 12 13 15 16 17 19 20 21 22 23 25 26 27 27 28 29 30 31 32 33 35 35 35 34 34 35 35 35 35 35 34 34 33 34 34
10 10 10 10 11 11 12 13 14 16 17 18 19 20 21 23 24 25 26 27 28 29 30 31 32 33 34 35 36 36 36 35 36 36 36 36 35 35 34 33 33 33 33
12 11 11 12 13 13 14 15 16 17 19 20 21 22 24 25 26 27 28 29 30 31 32 33 34 35 36 36 37 37 37 37 37 36 37 37 36 35 34 34 33 33 33
13 12 13 14 14 15 16 17 18 19 21 22 24 25 26 27 28 29 30 31 32 33 34 35 35 36 37 37 38 38 37 37 37 37 37 37 36 35 35 34 33 33 33
14 14 15 16 17 18 18 19 20 22 23 25 26 27 28 29 30 31 32 33 34 34 35 36 36 37 38 39 39 39 39 39 39 38 37 36 35 35 35 34 34 33 33
16 17 17 18 19 20 21 22 23 24 26 27 28 29 30 31 32 33 34 34 35 36 37 37 38 38 39 40 40 40 40 40 39 38 37 36 35 36 35 34 33 33 33
19 19 19 20 21 23 24 24 25 27 28 29 30 31 32 33 34 35 35 36 37 38 38 39 40 40 40 41 41 41 40 40 39 39 38 37 36 36 35 34 33 32 32
21 21 22 22 24 25 26 27 28 29 31 32 33 33 34 35 37 37 37 38 39 40 41 41 41 42 42 42 42 42 41 40 40 38 37 36 36 35 35 34 33 32 31
23 24 25 26 26 27 28 30 31 32 33 34 35 36 36 37 38 39 40 40 41 41 42 42 42 43 43 43 43 43 42 40 39 38 37 36 35 35 35 33 32 31 30
26 26 27 28 29 30 31 32 33 34 34 35 36 38 38 39 40 41 42 42 43 44 44 44 44 44 44 45 45 43 42 40 39 38 36 35 35 35 34 32 31 30 29
27 28 29 30 31 33 34 35 35 36 36 37 38 40 41 42 43 44 44 45 45 45 45 46 46 46 45 45 45 43 42 40 39 37 36 35 35 34 33 31 30 29 28
29 30 31 33 34 35 36 37 38 38 39 40 41 42 43 44 45 46 46 46 46 47 47 47 47 47 46 45 45 43 41 40 39 37 36 35 35 34 32 30 29 29 28
31 32 34 35 36 37 38 39 40 40 42 42 43 44 45 46 47 47 47 47 48 48 48 48 48 48 47 46 45 43 42 40 38 38 37 35 34 32 31 30 29 28 27

GEFSMW_500_meanwind_084.txt.gz
Wind_Speed
11 13 13 13 13 12 11 10 8 7 6 5 5 5 5 6 6 7 7 8 8 9 10 10 10 11 11 11 11 11 11 12 12 13 13 13 13 14 14 15 16 17 18
12 14 13 12 11 11 10 9 8 7 6 5 5 5 5 5 6 6 7 7 8 9 9 9 10 10 10 11 11 11 11 12 13 13 13 13 13 13 14 15 16 17 18
11 12 11 11 11 10 9 9 8 7 6 5 5 4 4 5 5 5 6 7 8 8 9 9 10 10 10 11 11 12 12 13 13 14 14 14 14 14 14 15 16 17 18
9 10 10 10 10 10 9 9 8 7 6 6 5 4 4 4 4 5 5 6 7 8 8 9 10 10 10 11 11 12 13 14 15 15 16 16 16 16 16 16 17 18 19
8 9 9 10 10 10 9 8 8 7 6 7 6 4 4 4 4 4 5 6 7 8 8 9 10 10 11 12 13 14 15 16 16 16 17 18 18 19 19 19 19 20 20
6 8 9 9 9 9 9 8 7 7 7 6 6 5 5 4 4 4 5 6 7 8 9 10 11 11 12 13 14 15 17 18 18 18 18 19 19 20 20 21 21 22 22
5 7 8 9 9 9 9 8 8 8 7 6 6 6 5 5 5 5 6 6 7 8 10 10 12 13 14 15 15 17 18 18 19 19 20 20 20 21 21 22 23 24 24
5 6 8 9 9 9 9 9 8 8 7 7 7 7 6 6 6 6 7 7 8 9 11 11 13 14 15 16 17 18 19 20 20 21 21 22 22 22 22 23 24 25 26
6 7 8 9 10 9 9 10 9 9 9 8 8 7 7 7 7 7 8 9 10 11 12 14 15 16 17 18 18 20 21 21 22 22 23 23 24 24 24 24 25 26 27
7 8 8 9 10 10 10 10 11 11 10 10 9 9 8 8 9 9 10 11 12 14 15 16 17 18 19 20 21 22 22 23 23 24 24 25 25 25 25 25 26 27 27
8 9 9 10 11 11 12 12 12 12 12 11 11 11 11 11 11 12 12 13 14 16 17 18 20 21 22 22 23 23 24 25 25 26 27 27 27 27 27 27 27 28 28
10 11 11 11 12 13 13 13 13 13 13 13 13 13 13 13 14 14 15 16 17 18 20 21 22 23 24 24 25 26 26 27 27 28 28 28 28 29 29 29 29 30 30
13 13 13 13 14 15 15 15 16 16 15 15 15 16 16 16 16 17 18 19 19 20 22 23 24 25 26 27 27 28 28 29 29 30 30 30 30 30 31 31 31 31 31
14 14 14 15 15 16 17 17 17 17 17 17 17 18 19 19 19 20 21 22 22 23 24 26 26 27 28 29 30 30 30 31 31 31 31 31 32 32 33 33 33 33 33
15 15 15 15 16 17 17 18 18 18 18 19 19 20 20 20 21 22 23 24 25 26 27 28 28 29 30 31 32 32 32 33 33 33 33 34 34 34 34 34 34 34 34
16 17 17 17 17 17 18 18 18 19 20 20 21 21 22 22 23 24 25 27 28 29 29 30 31 32 32 33 33 33 34 34 34 34 35 35 36 36 35 35 35 35 35
17 17 18 18 18 19 19 19 19 20 21 21 22 23 24 24 25 26 28 29 30 31 32 33 33 34 34 34 34 34 35 35 36 36 36 37 37 37 37 37 37 36 36
19 20 20 21 21 20 20 20 20 21 22 23 24 25 26 27 28 29 30 31 33 33 34 35 36 36 36 36 36 37 37 37 38 38 38 38 39 39 39 38 37 37 37
22 22 22 22 21 22 22 22 22 23 24 25 26 27 28 29 30 31 33 34 35 36 36 37 38 38 38 39 39 39 39 39 40 40 40 40 40 40 40 39 38 38 38
23 24 24 24 24 24 24 24 24 25 26 27 28 29 30 31 32 34 35 37 38 38 39 39 40 40 40 41 41 41 41 41 41 42 42 42 41 41 41 40 39 38 38
25 26 27 27 26 26 26 26 26 27 29 29 30 31 32 34 35 37 38 39 40 41 41 41 42 42 42 42 43 43 43 44 43 43 44 44 43 42 42 41 40 39 38
26 26 27 27 27 28 28 28 29 29 30 31 32 34 35 37 38 39 41 42 42 43 43 44 44 44 45 45 45 45 45 45 46 45 45 45 45 44 43 42 41 40 39
26 26 27 26 27 29 29 30 31 32 33 34 34 36 38 39 40 41 43 44 45 45 46 46 47 47 47 47 47 47 48 48 48 47 47 47 46 45 44 43 42 41 40
26 26 26 27 29 30 30 32 33 35 35 36 37 39 40 41 43 44 45 46 47 48 49 49 50 50 49 49 49 50 50 50 50 49 49 48 47 46 45 43 42 42 40
25 27 27 28 29 30 32 33 34 36 38 39 40 41 43 44 45 47 48 49 50 51 52 52 53 51 50 50 51 52 52 53 52 51 50 50 48 47 45 44 43 42 41
25 26 27 29 31 32 34 35 37 38 40 41 42 44 45 46 48 49 50 51 52 53 54 54 54 54 54 53 54 54 54 54 53 52 51 50 48 47 45 44 43 42 41

GEFSMW_500_meanwind_090.txt.gz
Wind_Speed
8 13 16 18 19 20 21 20 18 16 14 12 10 8 6 4 3 2 1 1 0 1 2 3 4 5 5 5 5 5 6 7 7 8 8 8 9 9 10 10 11 13 14
7 9 13 15 17 18 19 18 16 16 14 12 10 8 6 4 3 2 2 1 0 1 2 3 3 4 4 4 5 6 7 7 8 8 8 8 8 9 9 10 11 12 13
6 9 10 11 14 16 16 17 16 15 13 11 10 8 7 5 4 3 2 2 1 1 2 2 3 4 4 4 5 6 7 8 9 9 9 9 10 10 11 11 12 13 14
4 7 9 11 13 14 14 15 14 14 13 11 10 8 7 6 5 4 3 2 1 1 2 3 3 4 4 5 6 7 8 9 10 10 11 11 11 12 12 13 14 15 15
2 5 8 9 10 12 12 13 13 13 12 11 9 9 7 6 6 4 4 3 3 3 3 3 4 5 5 6 7 8 9 10 10 11 11 11 12 13 13 14 14 15 16
2 4 6 8 9 10 11 12 12 12 11 11 10 9 8 7 6 5 5 5 4 4 4 5 5 6 6 7 7 9 10 10 11 12 12 12 13 14 14 14 15 15 16
1 4 5 7 8 9 11 11 11 11 11 11 10 9 9 8 7 7 6 6 6 6 6 6 6 7 8 8 9 10 11 11 12 13 13 14 14 14 15 15 16 17 18
2 4 6 7 8 9 10 11 11 12 11 11 10 10 9 9 8 8 8 8 8 8 8 8 8 9 10 10 11 12 12 13 14 14 15 15 16 16 16 16 17 18 19
4 5 6 8 9 10 11 12 12 12 12 11 11 11 11 10 10 10 10 10 10 10 11 11 11 11 12 13 13 14 15 15 16 16 16 17 18 18 19 19 19 20 21
6 6 7 8 9 10 11 12 12 13 13 12 12 13 13 12 12 13 13 13 13 13 13 13 14 14 15 15 16 17 17 18 18 19 19 19 20 20 21 21 21 22 22
7 8 8 9 9 10 12 13 13 13 13 14 14 14 15 15 15 15 16 16 16 16 16 17 17 17 17 18 18 19 19 20 20 21 21 21 22 22 22 23 22 23 23
9 10 10 11 11 12 13 13 14 15 15 16 16 16 17 18 18 19 19 19 19 20 20 20 20 20 20 20 21 21 21 22 22 23 23 23 23 24 24 24 24 24 25
11 11 11 12 12 13 14 15 16 16 17 18 18 19 20 21 21 22 22 22 23 22 22 22 22 23 23 23 23 23 23 24 24 25 25 25 26 26 26 26 26 26 26
13 13 13 14 13 14 15 16 17 18 19 19 20 21 22 23 24 24 25 25 25 24 24 24 25 25 25 25 26 26 26 26 26 27 27 27 27 27 28 28 28 28 29
15 15 15 15 16 16 17 18 19 20 21 21 22 23 24 25 25 26 26 27 26 26 26 26 27 27 27 27 27 27 27 28 28 29 29 29 29 29 29 29 30 30 30
17 17 17 17 17 18 18 19 20 21 22 23 24 25 25 26 27 27 28 28 28 28 28 28 28 29 29 29 29 29 30 30 30 30 31 31 31 30 31 31 32 32 32
19 20 20 20 20 20 21 22 22 23 24 25 26 26 27 27 28 28 29 29 29 29 29 30 30 30 30 31 31 31 32 32 32 32 33 33 33 33 33 33 34 34 35
22 23 23 23 23 23 23 24 24 25 25 26 27 28 28 28 29 29 30 30 31 31 31 32 32 32 32 33 33 34 34 34 34 34 35 35 35 36 36 36 37 37 37
24 25 26 26 26 26 27 27 28 28 28 28 29 28 29 29 30 31 31 32 32 33 33 33 33 34 34 35 36 36 37 37 37 37 38 38 38 39 40 40 39 39 39
27 27 27 28 29 30 30 31 31 31 31 31 31 31 31 31 32 33 34 34 34 34 35 36 36 37 37 38 39 40 40 40 40 41 41 41 41 42 43 43 42 42 41
29 29 30 30 31 32 33 33 34 34 34 34 34 34 35 35 35 35 35 36 36 36 37 38 39 40 40 41 42 42 43 43 44 44 44 44 44 44 45 46 46 45 45
30 30 31 32 33 34 34 34 35 35 36 36 36 37 37 37 37 37 37 38 38 39 39 41 42 42 43 44 44 45 46 47 48 47 47 48 48 47 48 48 48 48 48
28 30 32 32 33 32 32 34 35 35 35 36 37 38 38 39 38 39 39 40 40 41 42 43 43 45 46 47 47 48 49 51 51 51 51 51 51 50 50 50 50 50 50
30 30 31 32 32 33 33 33 35 35 35 36 37 38 38 39 39 40 41 43 44 44 45 46 47 48 49 50 51 52 53 53 54 55 55 54 54 54 54 53 52 52 51
28 29 30 31 32 33 34 35 34 35 37 38 38 38 39 39 41 42 43 44 45 46 47 48 49 51 52 53 54 55 56 57 57 58 58 57 57 57 56 56 55 53 52
29 30 31 32 33 34 35 35 35 36 36 37 37 38 39 40 42 43 44 45 47 48 50 51 53 54 56 57 58 58 59 60 61 61 60 60 59 58 57 56 55 54 52

GEFSMW_500_meanwind_096.txt.gz
Wind_Speed
9 8 10 12 14 16 17 18 19 17 15 14 13 11 9 8 7 6 4 4 3 2 1 1 2 2 3 4 4 5 5 6 6 6 7 7 7 8 8 8 8 9 9
9 6 8 10 13 14 16 17 18 17 15 14 13 11 9 8 7 5 5 4 3 2 1 1 1 2 3 4 4 5 6 7 7 7 7 8 8 8 9 9 9 9 9
8 4 4 8 10 12 14 16 16 15 13 13 12 11 9 9 7 6 5 4 3 3 1 1 1 2 3 4 4 5 6 7 7 7 8 9 9 9 10 10 10 10 10
8 4 1 4 6 9 12 14 14 14 13 13 12 11 10 9 8 7 6 5 4 3 2 1 1 2 3 4 5 6 6 7 8 8 9 10 11 11 10 11 11 11 11
8 4 2 0 3 5 9 12 12 12 12 12 12 11 10 9 8 7 7 6 5 4 3 2 2 2 3 3 4 5 7 8 8 9 10 11 11 12 11 11 11 12 12
8 5 2 1 2 4 7 9 10 11 11 11 11 11 11 10 9 8 8 7 6 5 4 4 3 4 4 4 5 6 8 8 9 10 11 12 12 12 12 12 12 12 13
6 5 2 1 2 4 5 7 8 10 10 10 11 11 10 9 9 9 8 8 7 6 6 6 5 6 6 7 8 9 9 10 11 11 12 13 13 13 14 14 14 14 14
6 4 2 1 1 3 5 6 7 8 9 9 10 10 10 10 10 10 10 9 9 8 8 8 8 8 9 10 10 11 12 12 13 13 14 14 15 15 15 16 16 16 16
6 4 3 2 2 3 4 5 7 8 9 10 10 11 11 11 11 11 11 11 10 10 10 10 10 11 12 12 13 14 14 15 15 15 16 16 17 17 17 17 18 18 18
6 5 4 4 5 5 6 7 8 9 11 11 11 12 13 13 13 13 12 12 12 12 12 12 13 14 14 15 16 17 17 18 18 18 18 19 19 19 19 19 20 20 20
8 7 6 5 6 6 7 8 9 10 11 12 13 13 14 15 15 15 15 15 15 15 15 15 15 16 17 18 19 20 20 21 21 21 21 21 21 21 21 22 22 22 22
9 8 8 7 7 8 8 9 10 11 12 13 14 14 15 16 16 17 17 17 17 18 18 18 18 19 20 21 21 22 22 23 23 23 23 23 23 23 23 23 23 24 24
11 11 10 9 9 9 10 10 11 12 13 14 15 16 17 18 18 18 19 19 20 20 20 20 21 21 22 23 23 24 24 25 25 25 25 25 25 25 25 25 25 25 25
13 14 13 12 11 11 11 11 12 13 14 15 16 18 19 19 20 21 21 22 22 22 23 23 23 24 24 25 25 25 26 26 27 27 27 28 27 27 27 27 28 28 27
16 15 15 14 14 13 13 13 14 14 15 16 18 19 20 21 22 23 24 24 24 24 24 25 25 25 26 26 27 27 28 28 28 29 29 29 29 29 29 29 29 29 29
18 18 17 16 16 16 16 16 16 16 17 18 19 20 21 22 23 24 24 25 26 26 26 27 27 27 27 28 28 29 28 29 30 30 31 31 31 31 31 31 32 32 32
20 20 19 19 19 19 19 18 18 18 18 19 20 21 21 22 24 24 25 26 26 27 27 28 28 28 28 29 30 31 31 31 32 32 33 33 33 33 33 33 33 34 35
22 22 22 23 22 21 21 21 22 21 21 22 22 23 23 23 24 24 24 26 27 28 29 30 30 30 31 32 33 33 33 33 34 34 35 35 35 35 36 36 36 36 37
24 24 25 25 25 24 24 25 25 25 26 26 25 26 27 28 28 28 27 28 29 29 30 31 31 32 33 34 35 35 36 36 36 36 37 37 38 38 39 39 39 39 40
25 26 26 27 27 27 27 28 29 29 29 29 29 30 31 31 31 31 31 31 32 31 32 33 33 34 35 35 36 38 39 39 39 39 39 40 41 41 42 43 43 42 43
25 26 28 28 29 29 30 32 32 32 32 33 33 33 33 34 33 32 33 34 35 35 35 36 36 36 37 37 38 39 40 41 41 42 42 42 43 44 45 46 46 46 47
25 27 27 28 30 31 31 32 33 33 34 35 35 35 34 34 35 36 37 38 38 39 39 38 38 40 40 41 40 41 42 43 44 44 45 46 47 48 48 49 50 50 50
27 27 28 29 30 31 32 32 34 35 35 35 37 37 36 35 35 36 37 38 39 39 39 40 40 41 42 42 42 42 43 45 46 47 48 49 49 50 51 52 53 53 54
28 29 29 29 30 31 32 33 33 34 35 36 35 35 36 36 37 38 38 39 39 39 39 40 41 41 42 43 44 44 45 47 48 49 50 52 52 54 55 55 56 56 56
29 29 30 31 31 31 32 33 34 34 33 33 33 34 35 35 35 36 38 38 38 39 40 42 42 42 44 45 46 47 48 50 51 53 55 56 56 57 57 58 58 58 58
29 30 30 31 32 32 32 33 34 33 33 33 33 34 34 35 35 35 36 37 37 39 41 42 44 45 46 47 48 50 52 53 55 57 57 58 59 59 59 59 59 58 58

GEFSMW_500_meanwind_102.txt.gz
Wind_Speed
14 10 5 3 4 8 10 13 16 17 18 16 15 14 14 12 11 10 10 9 8 7 7 6 5 4 3 2 2 2 2 2 2 3 3 4 4 5 5 4 3 2 2
13 8 4 1 3 6 11 14 15 17 17 15 15 15 15 13 12 11 11 10 10 9 7 6 5 4 3 2 2 2 2 2 2 3 3 4 4 5 5 4 3 3 2
12 9 5 1 2 7 11 13 15 16 17 15 15 15 14 13 12 12 12 11 10 9 8 6 5 4 3 3 2 2 2 3 3 3 3 4 4 5 5 5 4 3 3
11 9 5 2 2 6 9 13 15 16 17 16 16 15 15 14 14 14 13 12 11 9 8 7 6 5 4 2 2 2 2 2 2 3 3 4 4 5 5 5 5 4 4
9 7 5 2 3 6 9 12 14 15 16 17 16 16 16 16 15 14 13 12 11 10 9 8 7 5 4 3 2 1 1 1 2 3 3 4 5 5 5 5 5 5 5
7 6 5 3 3 6 9 11 13 14 15 16 16 16 16 16 15 15 13 12 11 11 10 9 8 6 5 4 3 2 2 2 2 3 4 4 5 6 6 6 6 6 6
6 5 4 2 3 5 8 10 12 13 14 16 16 16 16 16 16 15 14 13 12 12 11 10 9 8 7 6 5 5 5 4 5 5 5 6 6 7 7 7 7 7 7
5 5 4 2 3 5 7 9 11 12 14 14 15 16 17 16 16 15 15 14 13 13 12 11 11 10 9 8 8 8 7 7 7 8 8 8 8 9 9 9 10 10 9
4 4 3 2 2 4 6 7 9 11 12 13 14 16 16 16 16 15 15 15 15 14 14 13 13 12 11 11 11 11 10 10 10 10 10 11 11 11 11 11 11 12 12
2 2 2 1 1 3 4 6 8 9 11 13 13 14 16 15 16 16 16 16 15 15 15 15 14 14 14 14 14 14 14 13 13 13 13 14 14 14 13 13 13 14 14
0 1 0 0 1 2 4 5 6 7 9 12 12 14 16 15 16 17 17 17 17 17 17 17 17 17 16 16 17 17 17 17 17 16 16 16 16 16 16 16 16 16 16
2 2 2 2 2 3 4 5 7 8 9 11 12 14 16 16 17 17 17 18 18 19 19 19 20 20 19 19 20 20 20 20 20 19 19 19 19 19 19 18 18 18 18
4 4 4 4 5 5 5 6 8 9 10 12 13 14 16 17 19 19 19 19 20 21 21 22 22 23 23 23 23 23 23 23 22 22 22 21 21 21 21 21 21 21 21
5 5 5 6 6 7 7 8 9 10 11 12 13 15 16 18 19 20 21 21 22 22 23 23 24 25 25 26 26 26 25 25 25 24 24 24 24 24 24 24 24 24 24
8 8 8 8 8 9 9 9 10 11 12 13 14 16 17 19 20 21 22 23 23 23 24 25 26 27 28 29 28 28 28 27 27 27 27 27 27 27 26 26 26 27 27
10 10 10 10 10 11 11 12 12 13 14 15 16 17 18 20 21 22 22 23 25 25 26 27 28 29 29 29 30 30 29 29 29 29 30 29 29 29 29 29 29 29 29
11 11 12 12 13 13 13 14 15 16 16 17 17 19 20 21 23 23 24 25 26 27 28 29 30 30 31 31 31 31 30 30 30 30 31 31 31 32 32 32 32 32 32
13 14 14 14 15 16 16 17 17 18 18 19 20 21 22 22 23 24 25 27 28 29 29 30 30 31 31 32 32 33 33 33 32 33 33 34 34 35 36 36 35 35 35
15 15 16 16 17 18 18 19 20 21 21 20 22 22 23 24 25 25 25 27 28 29 30 31 31 32 33 33 32 32 33 34 34 34 35 36 37 38 39 38 38 37 38
16 17 17 18 18 19 19 21 22 23 23 23 24 25 25 27 27 27 28 28 30 31 32 32 32 32 33 34 33 34 35 36 37 37 38 39 39 40 40 40 40 40 41
17 17 19 20 21 21 21 22 23 24 25 27 28 29 29 29 30 30 30 31 32 32 32 32 32 33 34 34 34 35 36 36 38 39 40 41 41 42 43 43 43 44 44
17 18 19 21 21 22 23 24 25 25 27 28 29 30 31 33 33 32 32 32 33 34 33 33 34 34 35 35 36 37 37 38 39 41 42 43 43 45 46 47 47 47 48
19 20 20 21 22 23 24 24 25 27 27 28 29 31 32 33 32 33 34 34 35 34 34 35 35 35 36 37 38 39 39 40 41 42 43 44 45 45 46 48 49 50 51
20 21 21 22 23 24 25 26 27 28 29 30 31 32 33 33 34 34 34 35 35 36 36 36 37 37 38 39 40 40 41 41 42 43 43 44 45 46 47 48 50 52 53
21 21 22 23 23 24 25 27 28 29 30 31 32 33 33 33 34 35 35 36 36 37 37 37 37 37 39 40 41 41 42 43 43 43 45 46 48 49 50 51 53 54 55
22 22 23 24 25 26 27 28 29 29 30 30 31 32 33 33 34 34 36 36 37 38 39 41 41 41 41 42 42 42 42 43 45 46 48 49 50 51 52 53 54 55 56

GEFSMW_500_meanwind_108.txt.gz
Wind_Speed
16 12 8 6 6 7 10 13 15 17 18 19 18 18 17 16 14 13 12 11 10 9 8 7 5 3 2 1 0 0 1 1 1 1 2 2 2 2 2 2 2 1 2
15 11 7 5 5 7 9 14 17 17 17 19 19 18 17 16 15 14 13 12 11 9 8 8 6 4 3 2 1 1 0 0 1 1 1 1 2 2 3 2 2 2 2
14 11 7 5 6 8 10 13 17 18 18 20 20 18 17 17 17 15 14 13 11 10 10 8 7 5 4 3 2 1 0 0 0 1 1 1 1 2 3 3 2 2 2
12 10 7 5 5 7 10 13 16 18 20 20 20 19 17 17 16 16 15 14 12 11 11 9 8 6 5 4 3 2 1 0 0 0 1 2 2 2 3 3 3 3 3
10 8 6 4 4 6 9 12 16 18 20 20 20 19 18 17 17 16 15 15 14 12 11 10 9 7 6 5 4 3 2 2 1 1 2 2 3 3 3 4 4 4 4
9 7 5 3 3 5 8 11 15 17 18 19 19 19 18 18 17 16 16 16 15 13 12 11 10 9 8 7 6 5 4 3 3 3 3 4 4 4 5 5 5 6 6
7 6 5 4 3 4 7 11 13 15 17 18 19 19 18 18 18 17 17 16 15 14 13 12 12 11 10 9 8 7 6 6 6 6 6 6 6 7 7 7 7 7 7
7 6 5 3 3 4 6 8 12 13 15 16 18 18 18 18 17 17 17 16 16 15 14 14 13 13 12 11 10 10 9 9 9 9 9 10 10 10 10 10 10 10 10
7 6 5 3 2 3 6 9 10 12 13 15 16 17 17 17 17 17 17 16 16 16 15 15 15 15 15 14 13 13 12 13 13 13 13 13 13 13 13 13 13 13 13
7 6 5 4 2 2 4 7 10 11 11 12 14 15 16 17 17 17 17 17 17 16 16 17 17 17 17 16 16 16 16 16 16 16 16 16 16 17 17 17 17 17 16
8 7 6 4 3 2 4 6 8 10 10 11 12 14 15 16 17 18 17 17 17 18 18 18 18 19 19 19 19 20 20 20 20 20 20 20 20 20 20 20 20 20 19
9 8 7 6 5 4 4 5 6 8 10 11 12 14 15 16 17 18 18 18 18 18 19 19 20 20 21 22 22 23 23 23 24 23 24 24 24 24 24 24 23 23 22
9 9 8 8 7 6 6 6 7 8 9 11 12 12 14 16 17 18 18 19 20 20 21 21 22 23 24 24 25 26 26 27 27 27 28 28 28 28 27 27 27 27 26
12 12 11 10 9 9 9 9 9 10 10 11 12 13 14 15 16 18 18 20 21 22 23 24 25 25 26 27 28 28 29 30 30 31 31 31 31 31 31 31 30 30 29
14 13 13 12 12 12 12 12 12 13 13 14 14 16 16 17 18 19 20 22 24 25 26 27 27 28 29 30 31 31 32 33 33 33 34 34 34 34 34 33 33 32 32
15 15 15 15 15 14 14 14 14 15 16 16 17 18 18 19 20 21 22 24 25 27 28 29 30 30 32 33 33 34 35 35 35 36 36 36 36 36 36 36 36 36 35
17 17 16 16 16 16 17 16 16 17 17 18 19 19 20 20 21 22 23 24 26 28 29 30 32 33 34 34 35 37 36 36 37 38 38 38 39 39 39 39 38 38 38
19 19 19 18 18 18 19 18 18 18 18 19 21 21 21 22 23 24 24 25 26 28 29 31 33 34 35 37 38 38 38 39 39 40 40 40 40 41 41 41 41 41 42
21 21 20 20 20 20 20 20 20 20 19 20 22 23 23 24 25 25 26 27 28 28 30 31 33 34 36 37 37 38 38 39 40 40 40 41 41 41 42 42 43 43 44
22 22 22 22 21 21 21 21 21 21 21 22 23 25 26 26 27 27 28 29 29 30 32 33 34 34 36 38 39 39 39 39 39 40 40 41 42 42 43 43 44 45 46
23 23 24 23 22 22 22 22 22 22 23 24 25 25 27 28 29 29 30 31 32 33 34 35 36 37 38 39 39 40 41 41 42 42 42 42 43 44 45 46 45 46 47
23 23 23 23 22 21 22 22 23 24 25 25 26 27 27 28 29 30 31 32 33 35 35 37 38 39 39 40 40 42 42 43 43 44 45 45 45 46 47 47 47 49 50
24 24 24 22 22 23 23 23 23 24 25 26 26 27 28 29 30 31 33 34 34 35 35 37 39 40 40 41 42 42 43 44 44 44 45 46 46 47 48 48 49 50 51
25 24 23 22 22 22 22 23 24 24 25 26 27 28 29 30 31 32 34 35 36 37 37 38 38 39 40 40 41 42 43 44 45 45 46 47 48 49 49 50 51 52 52
25 24 23 23 22 22 23 24 25 26 27 28 28 29 30 31 32 34 35 36 37 38 39 39 40 40 41 41 42 43 44 45 46 47 48 49 49 49 51 52 52 53 55
23 23 22 22 22 23 24 25 26 27 28 29 30 30 31 32 32 34 35 36 37 38 39 39 40 41 42 42 43 44 46 47 47 48 48 49 50 51 53 54 54 55 56

GEFSMW_500_meanwind_114.txt.gz
Wind_Speed
15 12 10 9 8 8 10 12 15 15 17 19 20 20 19 18 17 15 13 13 11 10 8 7 7 6 5 4 3 3 2 2 1 1 1 1 1 1 1 2 2 2 2
13 11 9 8 7 6 8 11 14 15 17 20 20 19 19 18 16 16 14 13 11 10 8 7 7 6 5 4 4 3 3 2 1 1 0 1 2 2 2 2 2 2 2
12 10 8 7 6 6 8 11 13 15 17 19 20 19 19 17 17 16 15 13 12 10 9 8 7 7 6 5 4 4 3 3 2 1 1 1 2 2 2 3 3 3 3
11 9 7 6 5 6 7 10 13 15 16 18 18 18 18 17 17 17 15 14 13 11 10 9 9 8 7 6 6 5 4 3 2 2 1 1 2 2 3 3 4 4 4
9 8 7 6 5 5 6 8 12 15 17 18 18 17 18 18 18 17 16 15 13 12 11 10 10 9 8 8 7 6 5 3 3 2 2 2 2 3 3 4 4 4 5
8 7 6 5 4 4 5 7 10 14 16 17 18 18 18 18 18 17 16 15 14 13 12 11 11 10 10 9 8 7 6 5 4 3 3 3 4 4 4 5 5 6 6
8 7 5 5 4 3 4 7 9 12 14 16 18 18 18 18 17 16 15 14 14 13 13 13 12 12 11 11 10 9 8 7 6 6 5 6 6 6 7 7 7 8 8
8 7 6 5 4 3 3 6 8 10 13 15 18 18 18 18 17 16 15 15 14 15 14 14 14 13 13 13 12 11 11 10 9 9 8 9 9 9 10 10 10 11 11
8 8 7 6 5 3 3 5 7 9 11 15 17 17 17 17 17 16 15 15 15 15 16 15 15 15 15 15 14 13 13 13 12 12 12 12 12 13 13 13 14 14 14
8 8 7 6 5 3 3 4 7 10 11 13 15 16 16 16 16 16 16 16 15 15 17 17 16 16 16 17 17 16 16 16 16 16 16 16 16 16 16 17 17 17 18
8 7 6 6 5 3 2 3 5 8 11 12 13 15 15 16 15 15 16 16 16 16 17 17 17 17 17 18 18 19 19 19 19 20 20 20 20 20 20 21 21 21 21
8 7 6 5 5 4 3 3 4 6 9 11 12 13 14 15 15 15 16 17 17 17 17 18 18 18 18 19 20 20 21 21 22 23 23 23 24 24 24 24 25 25 25
9 8 7 6 5 4 4 4 4 5 8 10 12 12 13 14 14 16 17 18 18 18 18 19 19 19 20 20 21 22 23 24 25 25 26 26 26 27 28 28 28 29 29
11 10 9 8 7 6 6 6 6 6 7 9 10 11 12 13 14 15 15 16 18 19 20 20 21 22 22 23 24 25 26 26 27 28 28 29 29 30 31 31 32 32 33
12 12 11 11 10 9 8 8 8 8 8 9 10 11 13 14 14 14 15 17 18 20 21 22 24 24 25 26 27 27 28 29 30 31 31 32 33 33 34 34 34 35 35
14 13 13 13 12 12 11 10 10 11 11 11 12 13 14 14 15 16 17 18 19 20 22 23 24 26 27 28 29 30 31 32 33 33 34 35 36 36 36 37 38 38 38
16 16 15 15 15 14 13 13 13 13 12 13 13 14 15 16 17 18 19 20 20 21 23 23 25 26 28 30 31 33 34 34 35 36 37 37 38 39 39 39 39 40 40
19 18 18 17 16 15 15 15 15 15 15 15 16 16 17 18 20 20 21 23 23 24 25 26 27 28 29 31 32 33 34 36 37 38 39 39 40 39 40 41 40 40 40
22 21 20 20 19 19 18 18 18 19 18 18 19 19 19 20 21 21 23 24 25 26 28 28 29 30 31 32 34 34 35 36 37 38 39 39 40 40 40 40 41 41 42
23 23 23 22 22 21 21 21 20 20 21 21 21 22 22 22 23 23 25 26 27 29 31 31 32 32 32 33 35 36 37 37 38 38 39 40 41 42 42 43 43 44 44
25 24 24 24 24 24 23 22 22 22 23 23 24 24 25 25 26 26 28 29 30 31 32 33 33 34 35 36 37 39 40 40 40 41 42 42 44 45 45 45 45 45 46
25 25 25 25 25 24 24 24 24 25 25 26 26 25 26 27 28 28 30 30 31 32 33 34 35 35 37 38 39 40 41 42 42 42 43 44 45 46 46 47 47 48 48
27 27 27 27 27 26 26 27 27 27 26 26 26 26 27 28 29 30 31 32 33 34 35 36 37 38 39 41 42 42 43 44 44 44 45 46 47 48 49 49 50 49 49
28 28 27 27 27 27 28 28 28 28 28 27 28 28 28 29 30 31 32 33 34 35 35 37 38 39 41 42 43 44 45 46 46 46 46 47 48 48 49 49 50 51 51
28 28 28 28 28 28 29 29 28 27 27 27 28 28 29 30 31 32 33 33 34 35 36 37 39 40 41 42 44 44 45 45 46 47 47 48 48 50 50 49 49 50 51
28 28 28 28 28 28 28 28 28 27 27 27 27 28 29 30 31 32 32 33 35 36 37 38 40 41 42 43 43 44 45 46 47 48 49 49 49 50 50 51 51 51 51

GEFSMW_500_meanwind_120.txt.gz
Wind_Speed
18 18 16 13 10 9 9 8 9 10 11 11 13 14 16 16 16 15 14 13 12 11 9 8 7 6 5 4 3 2 1 1 1 2 3 3 3 4 4 4 5 5 6
17 16 14 11 9 9 8 7 8 9 10 11 13 15 16 16 16 15 14 13 12 11 10 9 8 7 6 5 4 3 2 1 1 1 2 3 3 4 4 5 4 5 6
16 14 12 10 10 9 8 8 8 9 10 11 13 15 16 16 15 14 14 14 13 12 10 10 9 8 7 6 5 3 3 2 1 1 2 2 3 3 4 5 5 5 6
16 13 11 10 10 8 7 7 7 9 10 11 13 14 15 15 14 14 16 15 14 13 12 11 10 9 8 7 6 4 3 2 1 0 1 1 2 3 4 5 5 5 6
15 12 11 10 9 7 6 6 6 7 9 10 12 14 15 15 15 15 16 15 15 14 13 12 10 10 9 8 7 6 5 3 2 1 1 2 2 3 3 4 5 5 6
14 12 10 9 8 6 5 5 6 7 8 10 12 14 15 16 16 16 16 15 15 14 13 13 12 11 10 10 9 8 7 5 4 3 3 3 3 4 4 4 5 5 6
13 11 9 8 7 6 5 5 5 6 7 10 13 14 15 15 15 16 16 15 15 14 14 14 13 12 11 11 10 10 9 7 6 6 5 5 5 5 6 6 7 7 8
12 11 9 8 7 6 5 5 5 6 7 10 13 14 15 15 16 16 16 16 15 15 14 14 13 13 12 12 12 11 11 10 9 9 8 8 8 9 9 9 10 10 10
12 11 10 9 7 6 5 5 5 6 7 9 11 13 14 15 16 17 17 16 15 15 14 14 13 13 13 13 13 13 13 12 12 12 12 12 12 12 12 13 13 13 13
11 11 10 9 7 6 6 5 4 6 7 8 10 12 13 14 15 16 17 16 16 15 15 14 14 14 14 14 15 15 15 15 15 15 15 15 15 15 16 16 16 17 17
12 11 10 9 7 6 6 4 3 5 7 8 9 11 12 14 15 15 16 16 16 16 15 15 15 14 14 15 16 17 17 17 18 18 18 19 19 19 19 19 20 20 21
13 11 10 10 8 6 5 4 4 4 7 7 8 10 11 13 14 14 16 16 16 16 16 16 16 15 16 16 17 18 19 19 19 20 20 21 21 22 22 23 23 24 24
15 13 11 10 9 8 6 5 4 4 4 7 8 9 11 12 12 13 14 15 16 17 17 17 18 18 18 18 18 19 20 20 20 21 22 22 23 24 25 26 26 27 28
16 15 13 11 9 8 7 6 5 5 5 6 8 9 10 11 12 13 13 14 15 15 16 18 18 19 19 19 20 21 22 22 23 24 24 25 26 27 28 29 29 30 30
18 16 14 13 11 10 9 8 7 7 6 7 8 10 11 12 12 12 13 14 14 15 15 16 17 18 19 20 21 22 23 23 24 25 26 27 28 30 31 31 32 33 33
20 18 17 15 14 12 11 11 10 10 9 9 9 10 11 12 13 13 13 14 15 16 16 16 17 18 19 20 22 23 24 24 26 27 29 29 30 32 34 35 35 35 35
21 19 18 16 16 15 14 13 13 12 11 11 10 10 12 13 14 15 14 15 15 16 17 18 19 19 20 22 24 24 25 26 27 29 30 31 32 32 34 35 36 36 36
23 22 21 20 19 17 17 16 16 15 14 13 13 12 12 13 14 14 15 16 17 18 19 20 21 21 22 24 25 26 27 27 29 29 30 31 32 32 34 35 36 37 38
25 24 23 22 21 20 19 18 18 17 17 16 16 15 15 15 16 17 17 18 19 20 21 22 23 24 24 26 27 28 29 29 30 32 32 33 34 35 36 37 38 38 39
27 27 25 24 23 22 21 20 20 20 19 18 19 18 19 19 20 20 20 21 21 22 23 24 24 25 26 27 29 30 32 32 33 35 36 36 37 38 39 39 41 41 42
29 27 27 25 25 24 23 23 22 22 22 22 21 20 20 21 21 22 23 23 24 25 26 27 28 29 29 30 31 32 34 35 37 38 38 39 40 41 41 42 43 43 44
29 28 27 27 26 25 24 23 23 23 24 24 23 22 23 23 23 24 25 26 27 29 30 30 31 31 32 32 33 34 35 37 39 39 40 40 41 42 43 44 44 45 46
30 29 28 28 28 27 25 25 25 25 25 25 25 25 25 26 26 27 27 29 30 30 31 32 32 33 34 34 34 35 36 37 38 40 40 42 43 45 46 46 47 48 48
30 29 28 28 27 27 27 27 27 27 27 27 27 28 27 27 28 30 31 31 32 33 33 34 34 34 35 35 36 37 38 38 40 41 43 44 45 46 47 48 48 49 49
29 29 28 28 28 28 28 27 27 27 28 28 28 28 29 30 30 30 31 31 32 33 33 33 34 34 34 35 36 38 39 41 43 44 46 47 48 49 49 49 49 49 49
28 28 28 29 29 29 29 29 28 28 28 29 29 29 30 29 30 30 31 31 31 32 32 33 33 34 35 37 38 40 41 43 45 46 48 49 50 51 51 51 51 51 52

GEFSMW_500_meanwind_126.txt.gz
Wind_Speed
16 16 17 16 13 10 8 6 6 7 7 8 8 9 11 13 14 14 14 13 12 12 11 10 9 8 7 5 4 4 3 3 3 3 3 2 3 3 3 3 3 4 4
15 15 15 13 10 9 7 6 8 7 7 9 10 11 12 13 14 15 15 14 13 13 12 11 10 9 7 6 5 4 4 4 3 3 3 3 3 3 3 3 3 3 3
14 14 13 11 9 8 7 5 6 7 8 9 10 13 13 13 14 16 15 14 14 14 13 12 10 10 8 7 6 5 5 5 4 4 4 3 3 3 3 3 2 2 2
13 13 12 10 9 8 7 5 5 8 9 9 10 13 13 14 14 17 16 15 15 15 14 12 11 11 10 9 8 7 6 6 6 5 4 3 3 2 2 2 2 2 2
11 11 11 10 9 8 7 6 6 7 8 8 10 13 14 15 15 16 16 15 16 15 15 13 12 12 11 10 9 9 8 7 7 5 4 4 3 2 2 1 1 1 0
10 11 10 10 9 7 6 5 3 6 8 9 11 13 15 15 15 16 15 15 16 16 15 14 13 13 13 12 11 10 10 9 8 7 6 5 4 3 3 2 2 2 2
9 10 10 9 8 6 5 5 3 5 7 9 10 13 15 15 15 16 17 16 17 17 16 15 14 14 13 13 12 12 12 11 10 9 7 7 6 5 5 4 4 4 4
8 9 9 8 8 6 5 4 3 4 6 9 10 11 15 16 16 16 18 18 18 18 18 17 16 15 14 14 14 13 13 13 12 11 10 9 9 8 7 7 7 7 7
7 7 7 7 7 6 4 4 4 4 6 8 9 11 14 16 17 17 18 19 19 19 19 18 16 15 15 15 15 14 14 14 13 12 12 11 11 11 11 11 10 10 10
7 7 7 6 6 6 5 4 4 4 5 8 8 11 13 15 17 17 18 19 20 20 20 18 17 16 16 16 16 15 15 15 15 15 14 14 14 14 14 14 13 13 13
8 7 7 6 5 5 5 4 4 5 6 7 9 11 12 14 16 18 18 19 21 21 21 19 18 17 17 17 17 17 17 17 17 17 17 16 16 17 17 17 17 17 16
8 8 6 5 5 5 5 5 4 5 6 7 8 10 12 14 15 17 18 18 19 20 20 20 19 18 18 18 18 19 19 19 19 19 19 19 19 19 19 19 20 20 20
9 9 7 7 6 6 6 6 6 6 6 7 8 9 11 13 14 16 17 18 19 20 20 20 20 20 20 20 20 20 20 20 20 21 21 21 22 22 22 22 22 23 23
12 11 9 8 7 7 8 8 8 8 8 8 9 9 10 12 14 15 16 17 18 19 20 20 20 20 20 20 21 21 20 21 21 22 23 24 24 24 24 25 25 25 25
13 12 12 11 9 9 9 9 9 8 9 9 10 11 11 12 14 15 16 16 17 18 19 20 20 20 20 21 21 21 21 22 22 23 23 24 25 25 26 26 27 27 28
15 15 14 13 12 11 11 11 11 10 10 10 11 12 11 12 13 15 16 17 17 18 20 21 21 20 20 21 22 22 23 23 23 23 23 24 25 26 26 27 29 30 30
19 16 16 16 15 13 14 13 12 12 12 12 12 12 12 12 13 14 16 17 18 19 19 19 20 20 21 22 22 23 24 25 26 26 25 26 26 27 28 29 30 31 31
20 19 18 18 17 16 16 15 14 14 14 13 14 14 14 14 14 15 17 18 19 19 19 20 20 22 23 23 24 25 26 26 26 27 27 27 28 29 30 31 32 33 34
24 22 21 20 19 19 18 17 17 16 16 16 16 16 16 16 16 17 18 18 19 20 20 21 22 23 24 25 26 26 27 27 28 28 29 30 30 31 32 33 35 36 37
26 24 22 22 20 19 19 19 19 19 18 18 18 17 17 17 17 18 19 19 20 21 22 23 24 24 24 26 27 28 29 29 30 30 31 32 33 34 35 36 38 39 39
27 26 26 24 23 22 22 22 21 20 20 19 19 18 18 19 20 20 20 21 21 22 23 24 24 25 26 27 27 29 30 32 32 32 34 34 35 36 37 38 39 39 39
29 29 27 25 24 23 23 22 22 22 21 19 18 18 20 19 19 21 22 22 23 23 24 25 26 26 28 29 30 31 32 33 34 35 36 37 38 39 39 39 40 41 41
29 28 26 25 25 24 23 23 22 22 21 21 21 22 21 22 23 22 22 22 24 24 25 27 28 29 30 31 32 32 32 33 34 36 37 38 38 39 39 39 40 43 44
27 26 25 24 24 24 24 24 24 23 22 23 23 23 23 23 23 25 25 25 25 26 28 29 30 31 31 31 32 32 33 34 35 36 38 38 39 39 40 42 44 45 47
24 23 23 22 21 21 22 22 22 22 22 22 22 23 24 24 25 26 26 26 27 28 28 30 31 31 32 32 33 34 34 35 36 38 39 39 41 42 44 45 46 48 49
22 23 23 22 21 21 21 21 22 23 23 23 23 23 24 25 26 27 27 28 29 30 29 30 31 31 32 32 33 34 35 37 38 39 40 41 43 45 46 48 49 51 52

GEFSMW_500_meanwind_132.txt.gz
Wind_Speed
14 15 15 15 14 13 10 8 6 5 6 7 10 11 13 14 14 15 15 14 13 12 11 10 9 8 7 5 4 3 2 1 1 1 1 2 2 2 2 2 2 2 2
15 15 15 16 14 12 10 7 5 5 6 8 10 12 13 14 15 15 15 15 14 13 12 11 11 10 8 6 5 4 3 2 2 1 1 1 1 1 1 1 1 1 2
14 14 15 14 12 11 9 7 5 5 7 8 10 11 13 15 15 14 16 16 15 14 14 13 11 10 9 8 6 5 4 3 3 3 2 1 1 1 1 0 0 1 1
14 14 14 13 12 10 9 7 4 5 7 9 11 12 13 15 15 16 16 16 15 15 14 14 12 11 10 9 8 7 6 5 4 4 3 2 2 1 1 1 1 1 1
12 13 13 12 11 9 8 6 4 5 7 10 11 13 14 16 16 16 16 16 16 15 15 14 13 12 11 10 9 9 7 7 6 6 5 4 3 2 2 2 2 2 2
12 12 12 11 10 9 8 6 5 4 7 9 12 13 14 16 16 16 16 16 16 16 15 15 14 13 12 12 11 10 9 9 8 8 7 6 5 5 4 4 4 4 4
10 11 10 9 9 8 7 6 4 3 5 8 10 13 15 16 15 16 17 17 17 16 16 16 15 14 13 12 11 11 11 10 10 10 10 9 8 7 7 6 6 6 7
10 10 9 9 8 7 7 5 5 4 4 6 10 13 14 16 15 16 17 18 17 17 17 18 17 16 15 14 13 12 12 12 12 12 12 11 11 10 10 10 10 10 10
10 10 9 9 8 7 6 6 5 4 4 5 8 11 14 15 15 16 17 18 18 19 18 19 18 17 16 15 15 14 14 14 14 14 14 14 13 13 13 13 13 13 13
10 10 9 8 7 7 6 6 5 4 3 4 5 8 12 13 14 15 16 17 18 19 19 20 20 19 18 17 16 16 16 16 16 16 15 15 15 15 16 16 16 16 16
10 9 8 7 7 6 6 6 5 4 4 4 5 7 10 12 13 14 15 16 18 19 19 20 20 20 20 19 19 18 18 18 18 18 19 18 18 19 19 19 19 19 19
11 10 8 7 7 7 7 7 6 5 5 5 6 7 9 11 12 13 15 16 17 19 20 21 21 22 22 21 20 20 20 20 20 21 21 21 22 22 22 22 22 22 22
11 11 10 9 8 8 8 9 7 7 7 6 7 8 9 11 13 14 15 16 16 18 20 21 22 23 23 22 21 21 21 22 22 22 22 23 23 23 24 24 24 24 24
13 11 12 11 10 10 10 10 8 8 8 8 8 9 10 11 12 13 14 16 17 18 19 21 22 22 22 22 22 22 23 23 23 23 23 23 23 24 24 25 26 26 26
14 13 12 12 11 11 11 11 10 10 10 10 10 11 11 12 13 14 15 16 17 18 19 20 21 22 22 23 23 22 22 23 24 24 23 24 24 25 25 26 27 28 28
14 14 14 14 13 12 12 12 12 11 12 12 12 12 12 13 14 15 16 16 17 18 20 21 22 22 22 24 24 24 24 23 24 25 25 25 26 26 27 27 28 29 30
17 16 15 14 14 14 13 13 13 13 14 14 14 15 15 15 16 17 17 17 18 19 20 21 21 21 22 23 25 25 25 25 25 26 27 28 28 28 28 29 30 31 32
19 18 18 16 16 15 14 14 14 15 15 16 16 16 16 17 17 17 17 17 18 19 20 21 22 23 23 24 24 25 26 27 27 28 28 29 30 30 31 32 33 34 35
21 20 19 18 17 16 16 16 16 16 17 16 17 18 18 18 18 18 19 18 19 20 20 23 24 25 24 25 25 25 26 27 29 29 30 32 32 33 35 36 36 37 39
23 22 21 20 19 18 18 18 19 19 19 19 18 18 18 18 18 19 19 19 20 21 22 23 24 24 25 25 26 27 29 30 30 30 31 33 33 34 35 37 38 39 40
24 23 23 22 21 21 21 21 20 20 21 21 20 20 20 19 20 20 20 20 21 22 22 24 24 25 26 27 28 29 30 30 31 32 32 33 35 36 38 40 40 41 42
24 24 24 23 23 23 23 23 23 22 21 21 21 20 21 22 22 22 22 21 22 23 24 24 25 25 25 26 27 28 29 29 30 32 34 36 37 38 40 41 42 42 43
24 24 23 23 23 23 22 23 23 22 22 22 21 21 22 22 23 24 24 23 23 25 25 25 25 26 26 27 27 28 29 30 32 34 35 36 37 39 41 42 43 44 45
24 24 23 23 23 23 23 23 23 23 22 22 21 22 23 23 24 23 22 23 24 24 24 25 26 26 27 28 30 30 30 32 33 34 36 37 39 41 42 44 44 45 46
24 24 24 23 23 23 22 21 21 21 22 22 22 23 23 24 24 23 22 21 22 22 23 25 26 26 28 29 31 32 33 33 34 36 38 40 41 42 43 44 46 47 48
23 23 23 23 23 22 21 21 20 21 21 21 22 22 23 23 23 23 24 24 24 24 25 26 26 27 29 30 31 33 34 36 37 38 39 40 42 43 44 46 48 49 50

GEFSMW_500_meanwind_138.txt.gz
Wind_Speed
12 12 12 12 12 12 11 10 9 7 7 9 11 12 14 15 15 15 15 15 15 15 13 12 11 10 8 7 5 4 3 3 2 2 2 2 2 2 1 1 1 1 2
12 12 12 13 12 11 11 9 8 7 7 9 11 13 14 15 15 15 15 16 16 15 14 12 11 11 9 8 6 5 4 3 3 3 2 2 1 1 1 1 1 1 0
13 11 12 13 13 11 10 9 8 7 7 9 11 12 13 14 14 15 16 17 17 16 15 13 13 12 10 9 8 6 5 4 4 4 3 2 2 1 1 2 2 1 1
12 11 12 12 12 11 10 9 8 6 7 8 10 11 12 14 15 16 17 17 17 17 16 15 14 13 11 10 9 8 7 6 6 5 5 4 3 2 2 2 2 2 2
12 12 11 11 11 10 10 9 8 6 6 8 9 10 12 14 16 16 17 18 18 17 17 16 15 14 13 12 11 9 8 7 7 7 6 6 5 4 4 4 3 3 3
10 10 10 10 10 10 9 8 7 6 6 7 9 10 11 14 15 17 18 18 18 18 17 17 16 15 15 13 12 11 10 9 9 9 8 7 7 7 6 6 5 5 5
10 10 10 9 9 9 8 8 7 6 5 6 8 9 10 12 15 17 18 18 18 18 18 18 17 17 16 15 14 13 12 12 11 11 10 10 9 9 9 8 8 8 8
9 9 9 9 9 8 8 7 7 6 5 6 7 9 10 11 13 16 18 18 18 18 17 17 18 17 17 16 16 15 14 14 13 13 13 12 12 12 11 11 11 11 11
8 8 8 9 9 8 7 7 7 6 5 5 6 7 9 11 13 15 17 17 18 18 18 18 18 18 18 18 17 16 16 16 15 15 15 15 15 15 15 14 14 14 13
8 8 9 8 8 8 7 7 7 6 5 5 6 7 9 10 13 14 15 16 16 17 18 19 19 19 20 20 19 18 18 18 18 18 17 17 17 17 17 17 17 17 17
9 8 8 8 7 7 7 7 7 7 6 6 6 7 8 10 12 13 14 15 16 17 18 19 20 20 19 20 21 20 20 19 19 19 19 19 20 19 20 20 20 20 20
9 9 9 9 9 9 9 8 8 8 8 7 7 8 8 9 11 13 14 15 16 17 18 19 20 20 20 19 20 21 22 21 21 21 21 21 20 21 21 22 22 22 22
11 11 11 11 11 10 10 10 10 9 8 8 8 9 10 11 12 13 14 15 16 17 18 19 19 20 21 22 22 23 23 23 23 22 23 23 23 23 24 24 24 24 24
13 12 12 13 13 12 12 12 12 11 10 10 10 10 11 12 13 14 14 15 16 17 18 19 19 20 22 23 24 24 24 25 24 24 24 24 25 25 25 25 25 26 26
15 14 13 14 14 13 13 13 13 13 12 12 12 12 12 13 14 14 15 16 16 17 19 20 21 21 22 23 24 24 25 25 26 26 26 25 25 26 27 27 27 28 28
16 15 15 15 15 14 14 14 14 14 14 14 14 14 14 14 15 15 17 17 18 19 19 20 21 21 22 23 24 25 25 26 27 27 27 27 27 27 28 28 29 30 30
18 17 16 16 16 16 16 16 16 15 15 15 15 15 16 17 17 17 18 18 19 19 21 20 21 22 23 23 24 25 26 27 27 28 28 28 28 28 29 30 30 31 32
19 19 18 17 17 17 17 17 16 16 16 16 17 18 18 18 19 19 19 20 21 21 21 21 21 23 23 23 24 25 25 25 26 27 27 27 28 29 30 31 32 34 34
20 20 20 20 20 19 19 18 18 18 18 19 19 19 20 20 20 20 20 21 22 23 22 22 22 22 22 22 24 25 26 26 27 27 27 29 30 31 31 33 34 34 35
22 22 22 22 22 22 21 21 20 20 20 20 21 21 22 22 22 22 22 22 22 23 23 23 23 22 23 23 24 26 28 28 28 28 29 30 32 33 34 35 36 37 37
23 24 24 24 24 24 24 23 23 22 22 22 22 23 23 23 23 23 23 23 23 23 23 24 24 24 25 25 26 28 29 30 30 31 32 33 33 35 36 36 37 38 38
24 25 25 25 25 26 26 25 25 24 23 23 23 23 24 25 24 24 24 24 24 24 23 24 25 25 26 27 28 29 30 31 32 33 34 34 34 34 35 36 36 37 38
25 25 26 26 26 26 26 26 25 25 24 24 24 24 24 24 25 25 25 25 25 24 25 25 25 25 26 28 29 30 30 31 31 31 32 33 33 34 35 36 37 37 39
25 25 26 26 26 26 25 25 24 24 24 25 25 26 26 25 25 25 25 26 26 26 26 26 26 27 27 27 28 30 30 30 31 31 32 34 34 35 37 39 39 40 41
25 25 26 26 26 26 25 24 24 24 25 25 25 25 26 27 28 27 26 26 26 27 27 27 27 27 27 27 28 29 30 31 32 34 34 35 36 37 39 39 40 42 44
25 24 25 25 25 25 26 25 25 25 25 25 24 24 24 24 25 25 26 27 27 28 28 28 28 28 28 28 28 30 31 33 33 34 35 36 37 39 39 40 42 43 44

GEFSMW_500_meanwind_144.txt.gz
Wind_Speed
13 14 15 16 16 17 16 15 13 11 9 6 6 6 7 9 11 11 12 12 12 12 11 10 9 8 7 5 4 3 3 2 2 2 2 2 2 1 1 2 2 2 2
14 14 15 16 16 16 15 14 13 11 9 7 6 6 7 8 10 11 11 12 13 12 12 11 10 8 8 7 6 5 4 3 2 2 2 1 1 1 0 1 1 1 2
14 14 15 15 15 15 14 12 11 10 9 7 6 5 6 7 8 11 12 13 13 13 13 12 11 10 9 8 7 6 5 4 4 3 2 2 1 1 1 1 0 0 1
14 14 15 14 14 14 13 11 11 9 8 7 6 6 6 7 9 10 11 13 13 13 13 13 12 11 11 10 9 8 7 6 5 5 4 3 3 3 2 2 2 2 1
14 12 13 13 13 13 11 10 10 10 8 7 6 6 7 8 9 11 12 12 13 13 13 13 13 12 12 11 11 10 9 8 7 7 6 5 5 5 4 3 4 3 3
14 13 13 13 12 12 10 10 9 9 8 6 5 5 6 7 9 11 13 13 14 14 14 13 13 13 13 13 12 12 11 10 9 9 8 8 7 7 7 7 6 6 6
14 12 12 12 11 11 10 9 9 8 7 7 7 7 7 7 8 11 12 14 14 15 15 15 14 14 14 14 14 13 13 12 12 11 10 10 10 10 10 10 9 9 8
13 12 11 11 11 10 10 10 9 8 8 7 6 6 6 6 8 10 12 13 13 14 15 16 15 15 15 15 15 15 15 15 14 14 13 13 13 13 12 12 13 12 12
13 11 10 10 10 9 9 9 9 8 7 7 6 6 6 6 7 8 11 13 13 14 15 16 16 17 17 17 17 17 17 17 17 16 16 16 16 16 16 16 15 15 15
13 12 11 10 9 9 9 8 8 8 8 7 7 7 7 7 7 8 9 11 13 14 15 16 17 18 18 18 19 19 20 19 19 18 18 19 19 19 18 18 18 17 17
13 12 11 11 10 10 9 9 9 9 8 8 8 7 7 7 7 7 9 11 12 14 15 16 17 18 19 20 20 20 21 21 21 20 21 21 21 21 21 20 21 21 21
14 13 13 12 11 11 11 10 10 9 9 9 9 8 8 7 8 8 10 11 12 13 14 16 17 18 19 20 21 21 21 21 22 23 23 24 23 23 23 23 23 23 23
16 15 14 13 13 13 12 12 11 11 11 10 10 10 9 9 10 10 11 12 13 14 14 15 17 18 19 20 21 21 22 22 23 24 24 25 25 25 25 25 25 26 26
16 16 15 15 15 15 14 13 13 13 12 12 11 11 11 11 11 12 13 14 15 15 15 16 17 18 18 19 21 22 22 23 24 25 26 26 27 26 27 27 27 27 27
17 17 17 16 16 16 15 15 15 14 14 13 13 12 12 12 13 13 14 15 16 17 17 17 18 19 19 20 21 23 24 25 26 26 26 27 27 27 27 28 29 29 30
19 19 18 17 17 17 17 16 16 15 15 15 15 14 14 14 15 15 16 17 18 19 19 20 20 21 21 22 22 23 24 25 25 25 26 27 27 28 29 30 30 31 31
20 20 19 19 19 19 18 18 18 17 16 16 16 16 16 16 16 16 17 17 17 19 20 20 21 21 22 22 22 24 24 25 25 26 27 27 28 29 30 31 32 32 33
22 21 21 21 21 20 20 20 19 19 19 18 18 18 18 18 17 18 18 18 19 20 21 22 22 23 23 23 23 23 24 25 26 26 27 28 29 29 30 31 31 32 33
23 23 22 22 23 23 22 22 22 21 20 20 20 20 20 19 19 19 19 20 21 21 21 22 23 23 24 25 25 25 26 26 27 28 28 29 29 31 32 32 32 32 33
23 24 23 24 24 24 24 23 23 23 22 22 21 21 21 21 21 21 21 21 21 21 22 23 23 24 25 25 26 27 27 28 29 29 30 31 31 32 33 33 33 34 34
24 24 24 24 24 25 25 25 24 24 24 24 23 22 22 22 22 23 23 22 22 23 24 24 25 26 26 26 27 27 28 29 30 31 32 32 32 33 33 34 35 36 36
25 25 25 25 25 26 26 26 25 25 24 25 24 24 23 23 24 24 24 24 24 25 25 26 27 26 26 27 28 29 29 30 30 30 31 32 32 33 34 35 36 36 36
26 26 26 26 26 26 26 26 26 25 25 25 25 25 25 25 25 25 25 25 26 27 27 28 28 27 27 28 28 28 29 30 31 31 32 32 32 33 34 35 35 35 36
27 27 27 27 27 26 26 26 26 26 26 26 26 26 26 26 25 25 25 26 28 28 28 28 28 28 28 28 29 28 28 29 30 31 32 32 32 33 34 34 35 36 37
28 28 28 28 28 27 27 27 26 27 26 27 27 26 26 25 25 26 26 27 27 27 27 28 27 28 28 28 29 29 28 29 31 31 31 32 34 34 35 35 36 38 39
28 28 28 27 27 27 27 27 27 27 27 27 27 26 25 25 26 26 26 27 27 27 26 27 27 27 27 28 28 28 28 29 31 32 34 35 36 37 36 37 37 39 40

GEFSMW_500_meanwind_150.txt.gz
Wind_Speed
16 15 14 14 13 13 12 12 12 10 8 5 3 3 3 5 7 8 10 10 10 10 10 9 8 8 7 6 5 4 4 3 2 2 2 2 1 1 1 1 1 1 1
15 14 14 13 13 12 12 12 11 9 7 5 2 2 3 5 7 8 10 10 10 10 10 10 10 10 9 8 6 6 5 4 3 3 2 2 2 1 1 1 2 2 2
16 14 13 12 12 12 12 11 10 8 7 5 3 2 3 4 6 8 10 11 10 11 11 11 10 11 10 9 8 7 6 5 5 4 4 3 3 2 3 2 3 3 3
15 13 12 11 11 12 11 10 9 7 6 6 4 3 4 4 5 8 9 10 11 12 12 11 11 11 11 10 9 9 8 7 6 6 6 5 5 4 4 4 4 5 5
14 12 11 11 11 11 10 9 8 7 7 6 5 4 4 4 5 7 9 10 10 12 13 13 12 12 12 11 11 10 9 9 8 8 7 7 7 6 6 6 6 6 6
15 13 11 10 10 10 10 9 8 7 7 6 6 5 4 4 5 7 9 10 11 12 13 13 13 13 13 13 12 11 11 10 10 9 9 9 8 8 8 8 8 8 8
14 14 12 11 9 9 9 8 7 8 7 6 6 5 5 5 6 7 9 11 12 13 13 14 14 14 14 14 14 13 12 12 12 11 11 11 10 10 10 10 10 10 10
14 13 12 11 9 9 9 8 7 7 7 6 5 5 5 6 6 7 8 11 12 13 13 14 14 14 15 15 15 15 15 14 14 14 13 13 13 13 12 11 11 12 12
13 12 11 10 9 9 8 8 8 7 7 6 5 5 4 5 6 7 8 10 12 13 13 14 14 15 16 16 17 16 16 17 17 16 16 16 16 16 15 14 14 15 15
12 11 11 10 9 9 8 8 8 7 7 7 7 6 5 5 6 6 7 9 11 13 13 14 14 15 16 16 17 17 17 17 18 18 18 19 18 18 18 18 18 18 17
12 11 10 9 9 9 8 8 8 7 7 8 7 7 6 6 6 6 7 8 9 10 12 13 15 16 16 16 17 18 19 19 19 19 20 20 20 20 20 20 20 20 20
12 12 10 10 9 9 9 9 9 8 8 8 8 7 7 6 6 6 7 8 10 11 12 13 14 14 16 17 18 19 20 20 20 21 22 22 21 21 22 22 22 22 23
14 12 11 10 10 10 10 10 9 9 9 9 8 8 8 7 7 7 8 9 10 12 13 14 15 16 17 18 18 19 20 21 21 22 23 22 22 23 23 24 25 25 25
15 14 12 12 11 11 12 12 11 10 10 10 9 9 9 9 10 9 10 10 10 11 13 14 15 17 18 18 18 20 21 22 22 22 23 24 24 24 25 25 26 26 26
17 15 13 13 13 12 13 13 12 12 12 11 11 11 11 11 11 11 11 11 11 12 13 14 16 17 18 18 19 20 21 22 23 22 23 24 25 26 26 26 26 27 27
19 17 16 14 14 14 14 14 13 13 13 13 13 13 12 13 12 12 12 12 13 13 14 14 16 17 17 18 20 21 22 22 23 23 23 24 25 26 27 27 27 28 28
20 19 18 16 16 16 15 15 15 15 15 15 15 14 15 14 14 13 14 14 15 15 15 16 18 18 19 20 20 21 22 23 23 23 23 24 25 26 27 27 28 28 29
22 21 19 19 18 18 17 17 17 17 17 17 17 17 17 16 16 15 16 15 16 16 16 16 16 17 18 20 20 21 22 23 23 23 23 24 26 26 27 28 28 29 30
23 22 21 20 20 19 19 18 18 19 19 19 19 19 18 18 18 18 18 18 17 17 17 17 18 19 19 20 21 22 22 23 24 25 26 27 27 28 29 29 30 31 31
26 23 21 20 20 20 20 20 20 20 20 20 19 19 19 19 19 19 19 19 19 19 19 19 19 20 21 22 22 24 24 25 25 26 27 28 29 30 30 30 31 31 32
25 25 23 22 21 21 21 21 21 21 21 21 21 21 20 20 20 20 20 20 21 21 21 22 22 21 21 22 23 24 25 25 26 27 27 28 28 29 30 31 32 32 33
27 25 24 23 23 22 22 21 21 22 22 22 22 21 21 21 20 21 21 21 22 22 23 23 23 23 23 24 25 25 26 26 26 27 28 28 29 30 31 32 32 32 33
26 26 25 23 23 23 23 23 23 23 23 23 22 22 22 22 22 22 22 22 22 22 23 23 24 24 25 25 25 26 26 27 28 28 29 30 31 31 31 31 31 32 33
26 24 24 23 22 23 23 24 23 23 23 23 23 23 23 22 23 23 22 22 22 23 23 24 25 25 25 25 25 26 26 27 28 29 30 30 31 32 32 32 32 33 34
25 25 25 23 23 24 24 25 25 24 24 24 24 24 24 23 23 23 23 23 24 24 24 24 25 25 25 26 26 26 27 27 28 29 29 30 31 31 32 33 34 34 35
25 25 26 26 25 24 25 25 26 25 24 24 24 24 24 23 23 23 24 24 24 24 24 24 24 25 25 26 25 26 26 27 27 28 29 31 31 32 33 34 35 36 36

GEFSMW_500_meanwind_156.txt.gz
Wind_Speed
14 15 15 15 13 12 10 10 9 9 8 7 6 4 3 2 3 6 8 8 9 9 8 8 7 6 6 5 4 3 2 2 1 1 1 1 1 2 2 2 2 3 3
14 14 14 15 14 11 10 9 9 8 7 6 5 3 3 3 4 6 8 9 9 9 10 9 9 8 8 7 5 5 4 3 3 2 2 2 2 3 3 3 4 3 3
14 14 14 14 12 10 9 9 9 8 7 6 4 3 3 4 5 6 7 9 10 10 10 10 11 10 9 9 8 7 6 5 5 4 4 4 4 4 4 4 5 5 5
13 14 13 13 11 10 9 10 9 8 6 6 5 4 4 4 5 6 7 9 10 10 11 11 12 12 11 10 9 8 8 7 7 6 6 6 6 6 6 6 6 6 6
12 14 14 13 12 11 10 10 9 7 6 5 5 5 4 4 4 5 7 9 10 11 11 11 12 13 12 12 11 10 9 9 8 8 8 8 8 8 8 8 8 8 8
13 15 14 12 12 11 10 10 8 7 6 6 6 5 5 5 6 6 7 8 10 12 12 13 13 13 13 12 12 12 11 10 10 10 9 9 9 9 9 9 9 9 9
13 14 13 11 11 11 10 9 8 7 7 7 7 6 6 6 7 6 7 8 9 11 12 13 14 14 14 13 13 13 13 13 12 12 12 11 12 12 12 11 11 11 12
13 12 12 12 11 10 9 9 8 7 7 7 7 6 6 6 6 6 7 8 10 11 12 13 14 14 14 14 14 14 14 14 15 15 15 15 15 15 15 15 15 15 14
10 11 12 12 11 10 10 9 9 8 7 7 7 6 6 6 6 6 7 9 10 11 12 13 14 15 15 15 15 15 16 16 16 16 17 17 18 18 18 18 18 17 17
11 11 12 12 11 10 9 10 9 9 8 8 7 6 6 6 6 6 7 8 9 10 12 13 14 14 15 16 16 16 17 17 18 18 18 19 20 20 21 21 21 21 20
11 11 12 12 11 11 10 10 10 9 9 8 8 8 7 7 6 6 6 7 9 10 11 11 12 13 15 16 17 18 18 18 19 19 20 20 21 22 22 23 23 23 24
11 11 13 13 12 11 11 11 10 9 9 9 9 8 8 7 7 7 7 7 8 8 9 11 12 14 15 16 17 19 19 20 20 21 22 22 23 24 24 24 24 25 26
12 12 13 13 12 12 12 11 10 10 9 9 9 9 9 9 8 8 8 8 9 10 10 11 13 15 16 17 18 19 20 20 21 22 23 23 24 25 25 25 26 26 27
13 13 12 13 13 12 12 11 11 10 10 10 10 9 10 10 9 9 10 10 11 11 12 13 14 16 17 18 19 20 21 21 22 23 23 24 25 26 25 26 27 27 28
13 13 13 14 13 12 12 12 11 11 11 11 11 11 11 12 12 12 12 12 13 14 14 15 16 18 19 20 21 22 23 23 23 23 24 24 25 26 26 27 27 28 28
14 14 14 14 14 12 12 13 13 13 13 12 12 13 13 14 14 14 14 15 15 15 16 17 17 19 20 21 22 23 24 24 24 24 24 25 26 27 28 28 29 29 30
16 16 16 16 15 14 13 14 14 14 14 14 15 15 15 16 16 15 16 17 17 17 17 18 18 19 19 20 21 22 22 23 24 25 25 26 27 28 29 29 29 30 31
17 17 17 17 16 16 15 15 15 15 16 16 16 16 16 17 18 17 18 18 19 19 19 19 19 20 20 20 21 22 23 23 24 25 26 27 28 28 29 29 30 31 31
18 18 18 18 17 17 17 17 17 17 17 17 17 17 18 18 18 19 19 20 20 20 20 21 21 20 21 22 22 23 24 25 26 27 27 27 27 28 29 30 31 32 33
20 20 20 19 19 19 19 19 20 19 19 19 19 19 19 19 19 20 20 20 21 21 21 22 22 23 23 23 23 24 25 26 26 26 27 27 28 29 30 31 32 33 34
22 23 22 21 21 21 21 21 21 20 20 19 19 20 20 20 20 21 22 22 22 22 23 23 23 24 24 24 24 25 26 26 27 28 29 30 30 30 32 33 33 34 34
24 24 23 23 23 22 22 20 20 20 20 20 20 20 21 21 22 23 23 23 24 24 24 24 24 24 24 24 25 26 27 28 29 29 29 30 31 32 32 33 33 34 34
25 26 25 25 23 23 21 20 20 21 21 22 21 21 22 23 24 24 24 25 25 25 25 25 25 25 25 25 27 28 29 30 29 29 30 30 31 32 32 32 33 33 34
26 25 25 25 24 23 22 21 21 21 21 22 22 23 24 24 24 25 25 26 26 26 26 25 26 26 26 27 28 29 30 30 29 30 31 31 32 32 32 32 32 34 35
25 25 26 25 25 25 24 22 21 21 21 22 22 23 23 24 24 25 25 25 26 26 26 26 26 26 27 28 27 28 29 29 30 30 30 31 31 32 32 32 34 34 35
26 26 25 25 24 24 23 22 21 21 22 22 23 23 24 24 25 25 25 25 26 26 26 26 26 26 27 27 28 28 29 29 30 30 31 31 31 31 32 33 33 34 35

GEFSMW_500_meanwind_162.txt.gz
Wind_Speed
12 12 12 12 12 12 11 9 8 8 8 6 5 4 3 3 3 4 6 7 8 8 8 8 8 7 6 5 5 4 4 3 3 2 2 2 2 2 2 2 3 3 3
11 12 12 12 12 11 10 9 8 8 8 6 5 4 4 3 3 4 5 6 7 7 8 8 8 8 8 7 6 5 4 4 4 3 3 3 3 4 4 4 4 4 4
11 13 12 12 12 10 9 9 9 9 7 6 5 4 4 4 5 5 6 6 7 8 8 8 8 8 9 8 8 7 6 6 5 5 4 4 4 5 5 5 5 5 5
11 12 12 13 11 10 10 9 9 9 8 7 6 6 5 6 5 6 7 7 6 7 8 9 9 8 9 9 9 8 7 7 7 7 6 6 6 6 6 7 7 7 7
11 12 12 13 11 10 9 8 8 8 7 7 7 6 6 6 6 7 8 8 8 8 9 10 10 10 10 10 10 10 9 9 8 8 8 8 8 8 8 8 9 9 9
11 11 11 12 11 10 9 8 8 7 7 7 7 7 6 6 7 7 7 8 8 9 9 10 11 11 11 12 12 12 11 11 10 10 10 10 10 10 10 10 11 11 11
9 10 11 11 10 9 9 8 8 7 6 7 6 6 5 5 6 6 7 7 7 8 10 10 11 11 12 12 13 13 13 12 12 12 12 12 12 12 12 13 13 14 14
10 10 10 11 10 9 9 8 8 7 6 6 6 6 5 6 6 6 6 7 7 9 9 9 10 11 12 13 14 14 14 14 14 14 15 15 15 15 15 15 16 17 17
10 10 10 10 10 9 9 9 9 7 7 6 6 6 5 5 6 6 6 6 8 9 10 10 10 11 12 14 15 15 15 16 15 16 16 17 18 18 18 18 18 19 21
10 11 10 10 10 10 10 10 9 8 8 7 7 6 5 5 6 6 6 7 8 9 10 11 12 12 13 14 14 16 17 17 18 18 19 19 20 20 21 21 21 22 22
12 12 11 11 11 11 10 10 10 9 9 8 7 7 6 6 7 7 8 8 8 9 10 11 12 13 13 14 14 16 17 18 19 20 21 21 22 23 23 23 23 24 24
13 13 12 12 12 11 11 10 10 10 10 9 9 8 8 8 7 7 8 9 9 10 10 10 11 13 13 14 15 16 18 19 20 21 21 22 23 24 24 25 25 25 26
13 13 13 13 12 11 11 11 11 11 10 11 10 10 10 9 9 9 9 10 11 11 11 11 12 13 14 15 16 17 19 20 21 22 23 23 24 24 25 26 26 27 27
13 13 14 14 13 12 12 12 12 12 12 12 12 12 11 11 11 11 10 11 11 12 12 13 14 15 16 17 18 19 20 21 22 23 24 24 24 25 26 27 28 28 27
15 15 15 14 13 13 13 13 13 13 13 14 13 13 13 13 13 13 13 13 13 14 14 15 15 16 17 19 20 21 21 22 23 23 24 25 25 26 27 27 27 28 28
16 16 15 14 15 15 15 15 14 14 14 15 15 15 15 15 15 15 15 15 15 15 16 17 18 19 19 20 21 22 23 23 24 25 26 26 27 27 27 28 28 29 28
17 17 16 16 16 16 16 16 15 15 15 16 16 16 16 16 16 17 17 17 17 17 18 18 19 20 21 21 23 24 25 25 25 25 25 26 27 27 26 27 27 28 28
17 17 18 18 18 17 16 16 17 16 17 17 17 17 17 17 17 18 18 18 18 19 19 20 20 21 22 23 23 24 25 25 26 26 26 27 27 27 27 28 28 29 30
18 18 18 18 18 18 18 19 18 19 19 19 18 18 18 18 18 19 19 20 20 20 21 21 22 22 24 24 25 25 25 26 26 27 27 27 27 27 29 29 30 31 31
19 19 20 20 19 19 20 20 20 21 21 21 20 19 19 20 20 20 21 21 21 21 22 23 24 24 25 25 26 26 26 27 27 28 28 28 29 29 29 30 31 31 32
21 21 21 21 21 21 21 22 22 22 22 22 21 21 21 21 22 22 22 22 23 23 23 24 24 25 26 26 26 27 27 28 28 28 29 29 30 30 30 31 31 31 31
22 22 22 23 23 23 23 24 24 24 23 23 22 23 22 22 22 22 23 23 24 25 25 25 25 26 26 27 27 28 28 28 28 29 30 30 30 31 31 31 31 32 32
23 24 24 24 25 25 25 25 25 25 25 24 23 23 23 23 23 24 24 25 26 25 25 25 26 27 27 28 29 28 28 29 28 29 30 30 30 31 31 32 32 33 33
26 26 26 26 26 27 27 27 26 26 26 24 24 23 23 23 24 25 25 25 26 26 27 27 27 27 28 28 28 28 28 28 28 29 29 29 30 31 31 31 31 32 33
28 28 28 28 28 28 27 27 27 26 25 24 24 23 23 23 24 24 25 26 26 26 26 26 26 27 27 27 27 27 27 28 28 28 28 29 30 30 30 30 31 32 32
28 29 28 28 28 28 27 27 27 27 26 25 24 24 24 25 25 25 26 26 26 26 26 26 26 26 26 27 27 27 27 27 27 27 28 28 29 30 30 31 32 31 31

GEFSMW_500_meanwind_168.txt.gz
Wind_Speed
16 16 17 17 17 17 16 14 13 14 13 11 10 8 6 6 5 4 4 4 5 6 7 6 7 6 5 4 4 5 4 4 4 3 3 3 3 3 3 4 4 4 4
15 16 16 17 18 18 17 15 14 13 12 12 11 9 8 6 5 5 4 4 5 5 6 7 7 6 6 6 5 6 6 5 5 4 4 4 4 4 4 5 5 5 5
15 16 16 17 18 18 17 15 14 13 12 11 11 10 8 7 6 6 5 6 6 6 6 6 6 6 6 6 7 7 7 6 6 6 6 5 5 5 5 6 6 6 6
15 15 16 17 18 18 17 15 14 13 12 11 11 10 9 8 7 6 7 7 7 7 7 7 7 7 7 7 7 7 7 7 7 7 7 7 7 7 7 8 7 8 9
15 15 15 17 17 17 16 15 15 13 12 12 11 10 9 9 8 7 7 7 7 7 7 7 7 8 8 8 8 8 9 9 9 8 9 9 8 8 9 9 9 10 10
14 14 15 17 17 17 15 15 15 14 13 12 11 10 9 8 8 7 6 7 7 7 7 8 8 8 9 9 9 10 10 11 11 11 10 11 11 11 11 11 11 11 12
14 13 14 16 17 17 15 14 14 13 13 13 11 11 10 9 8 7 6 7 6 6 7 7 8 7 8 9 10 11 12 12 12 13 13 13 13 14 14 13 14 14 14
13 13 14 15 16 16 15 15 14 13 13 13 12 11 10 9 9 8 7 7 6 7 7 7 8 9 10 10 11 12 13 14 14 15 15 16 16 16 16 15 15 16 16
13 13 13 14 15 15 16 16 15 14 14 13 12 11 11 10 9 8 8 7 7 7 8 9 9 10 12 12 12 13 13 14 16 16 17 18 18 18 18 18 19 19 19
13 13 13 13 14 16 16 16 15 14 14 13 12 12 11 11 10 10 10 9 8 8 10 10 11 11 12 13 13 14 14 15 15 16 17 18 19 19 20 21 21 22 23
13 14 14 14 15 16 16 15 15 15 15 14 13 12 12 12 11 10 10 10 10 10 10 10 11 12 12 13 14 14 15 16 16 17 18 19 20 21 22 22 23 24 25
13 15 15 15 15 16 17 16 16 16 16 15 14 14 13 13 13 12 12 11 11 11 12 12 12 12 13 14 15 16 16 17 17 17 18 19 21 22 23 23 24 25 26
14 15 15 16 16 16 17 17 16 16 16 15 15 15 14 14 14 14 13 13 13 13 13 14 14 14 14 15 16 17 17 18 18 19 20 21 22 23 24 24 25 25 26
16 15 15 16 16 17 16 17 17 17 17 17 16 16 15 15 15 14 14 14 14 14 14 15 15 15 15 16 16 17 18 19 20 21 22 23 24 24 24 25 26 27 28
17 16 16 16 17 17 17 17 18 18 18 18 18 17 17 16 16 16 16 16 15 15 16 16 16 16 16 17 17 18 19 20 22 23 24 25 25 26 26 26 28 29 29
17 17 17 17 18 17 17 18 18 19 19 19 19 18 17 16 17 17 17 17 17 17 17 18 17 18 18 19 19 20 21 22 23 24 25 25 26 27 27 27 28 29 29
19 19 18 19 19 17 18 18 19 20 20 20 20 19 19 19 19 19 19 18 18 19 19 19 19 20 20 21 21 21 22 23 24 25 26 27 27 28 28 29 29 30 30
21 20 20 20 19 19 20 20 20 20 21 21 21 21 21 20 20 21 21 20 20 20 20 21 21 21 22 22 22 23 24 25 26 26 27 28 28 28 29 30 31 31 31
22 22 21 21 21 21 21 22 22 21 22 22 22 23 23 22 22 22 22 21 20 21 21 22 22 23 23 24 24 25 25 26 26 27 28 28 28 29 30 31 31 32 32
23 23 23 23 23 23 23 23 23 23 23 23 24 24 24 24 24 23 23 22 22 22 22 23 23 24 24 25 26 27 27 27 27 28 28 29 29 30 31 31 32 32 32
24 24 24 24 24 24 24 24 24 24 25 25 25 25 25 25 25 25 24 23 23 23 24 24 25 25 26 26 26 27 27 28 29 29 29 29 30 31 31 31 31 31 31
26 26 25 25 25 25 25 25 25 26 26 26 26 26 26 27 26 26 25 25 25 25 26 25 25 26 26 26 27 27 28 29 29 29 29 29 30 30 30 30 30 31 32
27 27 27 27 27 26 26 26 26 27 27 27 27 27 27 28 26 26 26 26 26 26 26 26 26 26 26 27 27 28 28 29 29 29 28 28 29 30 31 31 31 32 32
28 28 28 28 28 27 27 28 28 29 29 28 28 28 29 28 27 27 27 27 27 27 26 26 26 27 27 27 28 28 28 28 29 28 28 29 30 31 32 32 33 33 33
29 29 29 29 29 29 29 29 30 30 30 29 29 29 29 29 28 28 28 28 28 27 27 27 27 27 28 28 28 28 28 28 28 29 29 30 30 31 31 32 33 33 33
30 30 30 30 30 30 31 31 31 30 30 30 30 29 29 29 29 29 28 28 28 28 28 28 28 28 28 28 28 28 29 29 29 30 30 31 31 32 32 32 32 32 32

GEFSMW_500_meanwind_174.txt.gz
Wind_Speed
17 17 17 17 17 17 16 17 16 14 13 12 11 10 8 6 4 3 1 1 2 2 3 3 4 3 3 4 4 4 5 4 4 4 4 4 4 4 4 5 5 6 6
16 16 17 17 17 17 17 16 16 14 13 12 11 10 9 8 5 4 2 2 2 2 3 3 4 4 4 4 4 4 5 6 6 6 5 5 5 5 5 6 6 7 8
16 16 16 16 17 17 17 16 15 15 13 11 11 9 9 8 7 6 4 3 3 3 3 4 4 4 4 5 5 5 5 5 6 7 7 6 7 7 7 7 7 8 8
15 15 15 15 16 16 16 15 14 14 14 12 10 9 8 8 8 8 5 4 3 4 4 4 5 5 5 6 6 6 6 6 6 7 8 8 8 9 9 9 9 10 10
15 15 15 14 15 15 15 15 15 14 13 13 11 9 9 8 8 7 6 4 3 3 3 4 5 6 6 6 7 8 7 8 9 9 9 9 9 9 9 10 11 11 12
14 14 14 14 14 14 14 14 14 14 13 12 11 10 9 9 8 8 7 5 4 3 3 3 5 6 6 6 6 7 8 9 10 10 11 11 11 11 11 12 12 13 13
13 13 14 14 14 14 14 14 14 14 13 12 12 11 10 10 9 8 7 6 4 4 4 4 5 6 6 7 7 8 8 9 10 11 12 13 13 13 14 13 14 14 15
11 11 12 12 13 14 13 14 13 13 13 12 12 11 10 10 9 8 7 7 6 5 4 4 6 7 7 7 8 9 10 11 11 11 12 13 14 15 15 16 16 16 17
12 10 11 12 12 13 13 13 13 12 12 12 12 11 10 10 10 9 8 7 6 5 5 5 6 7 8 8 9 10 10 11 12 13 13 13 14 15 16 17 17 17 17
13 11 11 11 13 13 13 13 13 12 12 12 12 11 11 10 10 10 9 9 8 6 6 6 6 7 8 8 9 10 10 11 12 13 14 15 16 16 17 17 17 18 19
14 13 12 12 13 12 13 13 13 12 12 13 12 12 11 11 11 11 10 9 8 7 7 7 8 8 9 9 10 11 12 13 14 15 16 17 17 17 17 18 19 19 20
13 13 13 14 13 12 12 12 12 12 12 13 13 13 12 11 11 11 11 10 9 9 9 9 9 10 11 11 11 12 12 14 14 15 16 17 17 18 19 19 20 21 22
13 14 14 13 12 12 12 12 12 12 12 13 14 13 13 12 12 12 12 11 11 11 11 11 10 11 12 13 12 13 14 15 15 16 17 18 19 19 20 20 21 23 24
15 15 16 15 13 12 12 12 12 12 12 13 14 15 14 14 13 13 13 12 12 11 12 11 12 12 13 13 14 15 15 15 16 16 17 18 19 21 21 22 23 24 25
17 17 16 15 14 13 13 13 13 13 13 14 14 15 15 15 15 14 13 13 13 13 13 13 13 14 14 15 16 16 16 17 17 17 18 19 20 22 23 24 24 25 25
19 18 18 16 15 15 15 15 13 14 14 15 15 16 16 16 16 15 14 14 14 14 14 14 15 15 15 16 17 18 18 19 18 18 19 20 21 22 23 24 24 25 26
23 20 19 17 16 16 17 16 15 16 16 16 16 17 17 17 17 16 16 15 15 15 16 16 16 17 17 17 18 18 19 19 20 20 21 22 23 24 25 25 25 25 27
24 22 21 19 18 17 17 17 17 17 17 17 18 18 18 18 18 18 17 17 16 16 17 17 17 17 17 17 17 18 18 19 20 21 22 23 24 24 25 25 26 26 27
25 23 22 21 20 19 19 19 18 19 19 19 19 19 19 19 19 19 19 18 18 18 18 18 18 18 18 19 19 20 20 21 22 23 24 24 25 25 25 26 26 26 27
26 25 23 23 22 21 21 21 20 20 20 20 20 20 20 20 21 20 20 20 20 19 19 19 19 19 19 20 21 21 22 23 23 24 25 25 25 25 26 26 26 27 27
27 26 24 24 23 22 22 21 21 21 20 21 21 21 21 23 22 22 22 22 21 21 21 21 21 21 21 21 22 22 23 23 24 25 25 25 26 26 26 27 27 27 28
28 26 25 24 23 23 23 23 23 22 22 23 23 22 23 23 23 23 23 23 22 22 22 22 22 22 22 22 23 24 24 24 24 25 25 26 26 26 27 27 28 29 29
29 27 26 25 25 25 25 25 25 25 25 25 25 24 24 24 24 24 24 24 23 22 23 23 23 23 24 24 24 25 25 25 25 25 26 26 26 27 27 28 29 29 30
29 28 27 27 27 26 26 26 26 26 26 27 27 27 26 26 26 26 25 24 24 23 24 24 24 25 25 26 26 26 26 26 26 26 26 26 27 27 27 28 29 30 31
29 28 28 28 27 27 27 27 28 28 28 28 28 28 28 28 27 26 25 25 24 24 25 25 25 25 26 27 27 26 26 26 27 27 27 27 27 27 28 28 29 30 31
29 29 29 28 28 28 29 29 29 29 29 29 29 29 28 28 27 26 26 25 25 25 25 25 26 26 26 26 26 26 26 26 26 27 27 27 28 28 29 29 30 30 30

GEFSMW_500_meanwind_180.txt.gz
Wind_Speed
17 17 17 18 17 17 16 16 14 13 12 11 10 10 9 7 5 4 3 2 2 2 3 3 4 4 4 4 4 5 5 5 5 5 5 5 6 5 5 5 6 6 7
15 16 16 16 17 16 16 16 15 14 12 10 9 9 9 7 7 5 4 3 2 2 3 4 4 4 4 5 5 5 6 6 6 6 7 7 7 6 7 7 7 8 9
14 14 14 15 16 15 15 15 15 14 13 11 10 9 8 7 6 5 5 4 3 3 3 4 4 5 5 5 5 6 6 7 7 8 8 8 8 8 9 9 9 9 10
13 13 14 14 15 15 14 15 14 13 12 11 10 9 8 7 6 5 5 5 4 4 4 4 5 5 5 6 6 6 7 7 8 9 9 9 10 10 10 11 11 11 12
13 13 14 14 14 14 14 14 13 13 12 12 10 9 8 8 7 6 6 5 4 3 4 4 4 5 6 6 6 6 7 8 9 9 9 10 10 11 12 12 12 13 14
12 12 13 14 14 13 13 13 13 13 12 11 11 10 9 8 7 7 6 5 4 4 5 4 5 5 6 6 7 7 8 9 9 10 11 11 12 12 13 13 14 15 15
12 11 13 13 13 13 13 12 12 12 12 12 11 10 9 8 8 7 7 6 5 5 5 5 6 6 7 7 8 8 9 10 11 11 12 13 14 14 14 15 16 16 17
11 11 12 12 13 12 13 13 12 12 12 11 11 10 10 9 8 8 8 8 7 6 6 7 7 8 8 8 9 10 11 12 12 13 13 14 14 15 16 17 17 18 18
12 12 12 12 13 13 12 13 13 12 12 11 11 10 10 9 8 8 9 9 9 8 7 7 7 8 8 9 10 11 12 13 13 14 14 15 15 16 16 17 17 18 18
12 12 12 12 12 12 14 13 13 12 11 11 11 10 10 10 10 9 9 10 9 8 8 8 8 8 9 10 11 12 12 13 14 14 15 16 17 17 18 19 19 19 20
12 12 13 13 13 13 14 13 12 12 12 12 12 12 11 11 11 11 11 11 10 10 9 9 9 10 11 11 12 13 13 14 15 15 16 18 18 19 20 20 20 21 21
12 12 13 13 14 14 14 13 12 13 13 13 13 12 12 12 12 12 12 12 12 11 11 10 10 11 12 13 13 14 15 15 16 17 17 18 19 20 21 22 22 23 23
11 11 13 15 15 15 14 13 13 13 13 13 13 13 13 13 13 13 13 13 13 12 12 12 12 12 13 14 14 15 15 16 17 17 19 20 20 21 23 23 24 24 25
11 12 14 15 15 15 14 13 13 13 14 14 15 15 14 14 14 14 14 14 13 13 13 13 13 14 14 15 16 16 17 17 18 19 20 20 21 22 23 24 25 26 27
12 13 14 15 15 15 14 14 14 14 15 15 15 16 15 14 15 15 15 15 14 14 14 14 15 15 15 15 15 16 17 18 18 19 20 21 22 23 23 24 26 27 28
14 15 15 16 16 16 16 16 16 16 16 16 16 16 16 15 15 16 15 15 16 15 15 15 15 15 15 15 16 17 18 19 20 21 21 22 23 23 24 24 24 25 25
15 15 17 18 18 17 17 17 18 18 18 18 18 18 17 16 16 16 16 16 16 16 16 16 16 16 16 16 17 18 19 20 21 21 22 23 23 23 24 24 24 25 25
17 18 19 19 19 19 20 19 19 19 20 19 18 18 18 18 17 17 17 17 17 17 17 17 17 17 17 18 18 18 20 21 22 23 23 24 24 24 25 24 25 26 26
19 20 21 20 20 21 21 21 20 20 20 20 19 19 19 19 19 19 19 19 18 18 18 18 18 18 19 19 19 20 20 21 22 23 24 24 25 25 26 26 26 27 27
21 21 22 22 22 23 22 22 22 22 22 21 20 20 21 21 20 20 20 19 19 20 20 20 19 20 20 20 20 21 22 23 24 25 25 26 26 26 26 26 27 27 28
23 24 24 25 25 25 24 24 24 24 24 22 20 21 22 22 21 22 22 22 22 22 22 21 21 21 21 22 22 23 23 24 25 26 26 26 26 26 26 26 27 28 28
26 27 27 27 26 26 26 25 25 25 24 24 23 23 23 23 23 23 23 24 24 24 23 22 22 21 21 22 23 24 24 26 26 26 27 27 26 27 27 27 28 29 29
28 29 28 28 28 27 27 27 26 25 25 24 24 24 24 24 25 24 24 24 25 25 24 23 23 23 23 24 25 25 26 27 27 27 27 27 28 28 28 28 28 28 29
30 31 30 29 30 29 29 29 27 26 26 25 26 26 26 26 26 25 25 25 25 25 24 24 24 24 25 25 26 26 27 27 28 28 28 28 28 28 28 28 28 29 29
32 31 30 31 30 29 28 28 28 28 27 27 27 27 27 28 26 25 26 26 26 26 26 25 25 25 26 26 26 27 27 28 28 28 28 28 28 28 28 28 29 29 30
33 32 31 31 31 30 30 29 29 29 28 28 28 28 28 28 27 26 26 27 27 27 27 26 26 26 27 26 27 27 27 28 28 28 28 28 28 28 28 29 29 30 30

GEFSMW_500_meanwind_186.txt.gz
Wind_Speed
15 15 16 16 15 15 15 14 13 13 12 11 10 8 7 5 4 3 2 2 1 2 3 4 4 4 4 5 5 5 5 5 6 6 6 6 6 7 7 7 7 8 8
15 15 15 15 15 15 15 14 13 13 12 11 10 9 7 6 5 4 3 2 1 2 3 4 5 5 5 5 6 6 6 6 7 7 8 8 8 8 8 9 9 9 10
14 14 14 14 14 15 14 13 13 12 12 11 10 9 7 6 5 5 4 3 3 3 3 4 4 5 5 5 6 7 7 7 7 8 8 9 9 10 10 11 11 11 12
13 12 13 13 14 14 14 13 13 12 12 11 10 9 8 7 6 6 5 4 4 3 3 3 4 4 5 6 6 7 7 8 8 8 9 9 10 11 11 12 12 12 13
12 11 12 12 12 13 13 13 13 13 12 11 10 9 8 8 7 6 5 5 5 4 4 5 5 5 5 6 6 7 7 8 8 9 9 10 11 11 12 13 14 14 15
11 10 11 12 13 13 13 13 13 13 12 11 10 9 9 8 8 7 7 6 6 6 6 6 6 6 6 6 7 7 7 8 9 10 11 12 12 13 13 14 15 15 16
10 10 11 12 12 13 13 13 13 13 12 11 11 10 9 9 8 8 8 8 7 8 7 6 6 7 8 8 8 7 8 9 10 11 12 13 14 15 15 16 16 16 17
10 10 11 12 12 12 12 12 12 12 12 11 11 10 10 9 9 9 9 9 9 8 8 7 7 8 8 8 8 9 10 10 11 12 12 13 14 16 16 17 17 17 18
10 10 11 11 12 11 12 12 12 12 11 11 11 11 10 9 9 9 9 10 10 9 9 9 8 8 8 9 10 11 11 12 12 13 14 15 15 16 16 17 18 18 19
11 10 10 10 11 12 11 12 12 12 12 11 11 11 10 9 10 10 10 10 10 10 10 9 9 8 9 11 11 12 12 12 13 14 15 16 16 17 18 19 19 20 20
11 10 11 11 11 11 11 11 12 12 11 11 12 11 11 10 11 11 11 11 11 11 10 10 10 10 10 11 12 13 13 14 14 15 16 16 18 18 19 20 20 21 22
10 10 10 10 11 10 10 12 12 12 12 12 13 13 12 11 11 12 11 12 12 11 11 11 11 11 11 12 13 13 13 14 15 15 16 17 18 19 20 21 21 22 22
11 10 10 10 10 10 11 12 12 13 13 14 14 14 14 13 12 13 13 13 12 12 12 12 12 12 12 12 13 14 14 14 15 16 16 17 18 19 20 21 22 22 23
11 10 10 11 11 11 11 12 13 13 14 14 15 15 15 14 14 14 14 13 13 13 13 13 13 13 13 13 14 15 15 15 16 16 17 17 18 19 20 21 22 23 24
12 11 11 11 12 12 13 13 14 15 15 16 16 16 17 17 16 16 16 15 15 14 14 13 13 13 14 14 14 15 15 16 17 18 18 19 20 21 22 23 23 24 24
13 13 13 13 13 14 15 15 16 16 17 18 18 18 18 18 18 17 17 15 16 16 15 15 15 15 14 14 15 16 16 16 17 18 19 19 20 22 23 23 24 24 24
16 15 14 15 15 16 17 17 18 18 19 20 20 19 19 19 18 17 18 18 18 17 17 17 16 16 16 16 17 17 17 18 18 19 20 21 21 22 23 23 24 24 24
17 17 16 16 17 18 18 19 20 20 21 21 21 20 20 19 18 18 18 19 19 18 17 17 17 17 17 18 18 18 18 19 20 20 21 21 22 23 23 23 24 24 25
18 19 18 18 18 19 20 21 22 22 22 21 21 21 21 20 19 19 19 20 20 19 19 18 18 18 18 19 19 19 20 20 21 21 22 22 23 23 23 24 25 25 25
19 20 20 20 20 20 21 23 23 23 23 23 22 22 21 20 20 20 20 21 22 21 20 20 19 20 20 20 20 21 22 22 23 23 23 24 24 24 24 24 25 25 26
22 23 23 23 22 23 23 24 24 23 23 23 23 23 22 21 21 21 22 22 22 21 21 21 20 21 21 21 22 22 23 23 24 24 25 25 25 25 25 26 26 27 27
24 25 24 24 24 24 25 25 25 25 24 24 24 24 24 23 23 23 23 23 23 22 22 22 22 22 22 22 22 22 23 24 25 25 25 26 26 26 26 26 27 27 28
26 26 26 25 25 26 27 26 26 26 26 26 26 26 25 25 25 24 24 23 23 23 24 24 24 23 23 23 23 24 24 24 25 26 27 27 27 27 28 27 28 28 29
28 28 28 27 27 27 28 28 28 27 28 28 27 26 26 26 26 25 25 24 24 25 25 24 25 25 25 25 25 25 25 26 26 27 27 28 28 28 29 28 28 29 30
29 29 29 29 29 29 29 30 30 29 28 27 27 27 27 27 27 27 26 26 25 26 26 26 26 27 26 26 26 27 27 27 27 28 28 29 29 29 29 28 28 28 29
32 31 31 31 31 32 32 32 31 30 29 29 28 28 28 28 28 27 27 27 26 26 26 26 26 26 27 27 28 28 28 28 28 29 29 29 29 28 28 28 28 29 29

GEFSMW_500_meanwind_192.txt.gz
Wind_Speed
19 19 19 19 19 18 17 17 16 15 14 14 13 12 10 8 6 6 5 5 4 3 2 3 3 4 4 5 5 5 5 5 6 6 7 7 7 7 7 7 8 8 8
17 18 18 19 18 18 18 18 17 16 15 14 13 12 11 9 8 7 7 6 4 3 3 3 4 4 5 5 6 7 7 7 7 8 8 8 9 9 9 9 9 10 10
16 17 18 19 18 18 18 17 17 16 15 15 14 13 12 11 10 9 8 7 5 4 4 4 4 5 5 6 6 7 8 8 8 9 9 8 9 9 10 10 11 11 11
15 16 17 18 18 17 17 17 17 16 15 15 13 13 12 11 11 9 9 7 6 5 5 5 5 6 6 6 6 7 8 8 9 9 10 10 10 10 11 11 12 13 13
15 16 16 17 17 17 17 17 17 17 16 15 13 12 12 11 11 11 9 8 7 7 7 6 6 6 6 7 7 7 8 8 9 9 9 10 10 11 11 12 12 13 14
14 15 16 16 17 16 16 16 17 16 16 15 14 13 12 12 12 11 10 9 9 8 8 7 7 7 7 7 8 8 8 8 9 9 10 10 11 12 12 13 14 14 15
13 15 15 16 16 16 16 16 16 16 16 15 15 14 12 12 13 12 11 10 10 9 9 8 8 8 8 8 9 9 10 10 10 11 11 12 12 13 13 14 15 15 16
13 14 15 15 16 16 16 16 16 16 16 16 15 15 13 13 13 12 12 12 12 11 11 10 9 9 9 9 10 10 10 11 11 11 12 12 13 14 14 15 16 16 17
12 13 14 15 15 16 15 15 15 15 15 16 16 15 15 14 14 13 13 13 12 12 12 11 9 9 9 10 10 11 11 11 12 13 13 13 14 15 16 16 17 17 17
12 12 14 14 15 16 15 15 15 15 15 16 16 16 16 15 14 14 14 14 14 14 12 12 12 11 11 10 11 11 12 12 13 13 14 14 15 16 17 17 18 18 19
12 12 13 14 14 15 16 16 15 15 15 16 16 16 16 16 14 14 15 15 15 14 14 14 14 12 11 11 11 12 12 12 13 13 14 15 16 17 17 18 18 19 19
12 12 13 13 14 15 16 16 16 16 16 16 17 17 18 17 16 15 15 16 15 15 15 14 14 13 13 12 13 13 13 13 14 15 15 16 16 17 18 19 19 19 20
12 12 12 13 14 15 15 16 16 17 17 18 18 18 19 19 18 16 17 17 16 16 15 15 16 15 14 14 14 13 14 14 15 16 17 17 17 18 19 19 20 20 20
13 12 12 13 14 14 15 16 17 17 18 19 20 20 20 20 19 17 17 17 16 16 16 16 17 17 16 15 15 15 15 16 17 17 17 17 18 19 20 20 21 21 22
14 13 13 13 14 15 15 16 17 18 19 20 21 21 21 21 21 20 18 18 17 16 17 17 18 17 16 16 16 16 17 18 18 18 18 18 19 20 20 21 22 23 23
15 15 14 14 15 15 16 17 18 19 20 21 22 22 22 22 22 22 20 18 18 18 18 19 19 19 18 17 18 18 18 18 19 19 19 20 21 21 21 22 23 23 24
17 16 16 16 16 17 17 18 19 20 21 23 24 24 23 23 23 22 21 20 19 19 19 20 20 20 19 19 19 19 19 20 20 20 20 21 22 22 23 23 24 24 24
19 18 17 18 18 18 18 19 20 22 23 24 25 25 25 24 24 22 21 21 21 20 20 20 21 21 21 20 20 20 20 21 22 22 22 22 23 24 24 24 24 25 25
20 20 19 19 19 19 20 21 22 23 24 25 25 26 25 25 24 24 22 22 22 21 21 21 21 22 22 21 21 21 22 22 23 23 23 24 24 24 24 25 26 26 27
22 21 21 21 21 21 22 22 23 24 25 26 26 26 26 25 25 24 23 23 23 23 23 23 23 23 23 22 23 23 23 23 24 24 24 24 25 25 26 27 28 28 28
23 23 23 23 23 24 24 24 25 26 26 26 27 27 27 26 25 25 25 25 25 24 25 25 24 24 24 24 24 24 24 25 25 25 25 26 26 27 28 29 29 29 29
24 25 25 25 25 26 26 26 26 26 26 27 28 28 28 28 27 27 27 27 26 26 26 25 25 25 25 25 25 25 25 25 25 26 26 27 28 29 29 30 30 30 30
27 27 26 27 27 28 28 27 27 28 28 29 30 30 29 29 29 29 28 27 27 27 27 26 26 26 27 27 27 27 26 26 26 27 28 29 29 30 30 30 30 30 30
28 28 28 28 28 29 29 29 29 30 29 30 30 31 31 31 30 29 29 28 28 28 28 28 27 28 28 28 27 27 27 28 28 29 29 30 30 30 30 30 30 30 30
30 30 30 30 30 30 31 31 30 30 30 31 32 32 32 32 31 30 30 29 30 30 30 29 29 29 29 29 29 28 29 29 30 30 30 30 30 30 30 30 30 30 30
34 34 34 33 33 33 33 31 32 32 33 33 33 33 33 32 32 32 31 30 30 30 30 30 30 30 29 29 29 30 30 30 30 30 30 31 30 30 30 30 30 30 31

GEFSMW_500_meanwind_198.txt.gz
Wind_Speed
18 19 20 19 19 18 17 17 16 14 13 13 12 11 10 9 8 7 5 4 3 2 1 1 1 1 1 2 2 3 3 3 4 5 6 6 7 8 8 8 8 8 8
18 18 18 19 18 18 17 17 16 15 14 13 13 12 10 10 9 8 7 5 4 3 2 2 1 1 2 2 3 4 4 5 5 6 6 7 7 7 8 9 9 9 9
16 17 17 18 18 18 17 16 15 14 14 13 13 12 11 10 9 8 7 6 4 3 2 2 2 2 2 3 3 3 4 4 5 6 6 6 7 7 8 9 9 10 11
15 15 16 17 17 17 17 16 16 15 14 13 13 13 12 11 10 9 8 8 6 4 3 3 2 2 3 4 4 4 4 5 5 6 6 6 6 7 8 8 10 11 12
14 14 15 16 16 17 17 16 16 15 14 13 12 12 12 11 11 10 9 9 7 6 5 4 3 3 4 4 5 5 5 5 6 6 6 7 7 8 8 9 10 11 12
12 13 13 14 15 16 16 16 15 15 14 13 12 12 11 11 10 10 10 10 9 7 6 5 4 4 5 6 6 7 7 7 7 7 8 8 8 9 9 10 10 11 12
11 12 13 13 13 14 15 15 15 15 14 14 13 12 12 11 11 11 11 11 10 9 7 6 6 5 5 6 7 8 8 8 8 8 8 9 9 10 10 10 11 12 14
10 11 12 12 12 13 14 14 14 14 14 14 14 13 13 12 12 12 11 11 10 10 9 7 7 6 6 6 7 7 7 8 8 8 9 9 10 11 11 11 12 13 14
9 9 10 11 11 12 12 12 13 14 14 14 14 14 14 14 14 13 12 11 11 10 9 9 8 8 8 8 7 7 8 8 9 9 10 11 11 12 12 12 13 14 15
8 9 9 9 10 11 11 11 12 13 14 14 14 15 15 14 15 14 13 12 11 11 10 9 9 9 9 9 9 9 9 9 10 11 12 12 12 13 13 14 14 16 17
8 8 8 9 9 11 11 10 11 12 13 14 14 15 16 16 15 15 14 13 12 12 11 10 10 9 9 10 10 10 10 11 11 12 12 13 13 14 14 15 16 16 17
7 8 8 8 9 10 10 10 11 12 13 14 15 16 17 17 17 16 15 14 13 12 11 11 10 10 11 11 11 11 11 12 12 13 13 14 14 14 15 16 16 17 18
8 8 8 8 9 10 10 10 10 12 13 14 15 16 17 18 18 17 16 14 13 13 12 12 11 12 12 13 12 12 12 12 12 13 14 14 15 16 16 17 17 18 18
9 9 9 9 10 10 10 11 11 12 13 14 15 16 17 18 19 19 18 16 14 14 14 14 13 13 13 14 14 14 13 13 13 14 14 15 15 16 17 17 18 18 19
10 10 11 10 11 11 11 11 12 13 14 15 17 18 18 19 20 20 20 18 15 15 15 14 13 13 14 15 15 14 14 14 15 15 15 16 16 17 17 18 18 19 20
12 12 12 12 13 13 12 12 13 14 15 17 18 18 19 20 21 21 20 19 17 16 15 15 15 15 15 16 16 15 15 16 16 17 17 18 18 18 18 18 19 20 21
14 14 14 14 14 14 14 15 15 15 16 17 18 19 19 20 21 21 20 19 18 17 16 16 16 17 17 17 17 16 16 17 17 18 19 19 19 19 19 20 21 22 22
16 16 16 16 17 18 17 17 17 17 17 18 19 20 20 20 21 21 21 20 20 19 19 18 18 18 18 17 17 17 18 18 18 19 19 20 20 21 21 22 23 23 23
19 19 19 19 20 19 19 19 20 19 18 19 20 20 21 21 21 22 21 21 21 21 20 20 20 19 19 19 18 19 19 20 20 20 21 21 21 22 22 23 24 24 25
23 22 22 21 21 22 21 21 23 21 20 21 21 22 22 22 23 23 23 23 22 22 22 21 21 20 20 20 20 20 20 21 21 22 22 22 22 23 23 24 24 25 26
26 25 24 24 23 23 23 23 23 22 22 22 22 23 23 24 24 25 26 25 24 23 23 22 22 21 22 21 21 21 21 22 23 24 24 24 24 24 24 25 25 26 27
27 27 26 25 24 24 24 24 23 24 24 24 24 25 25 25 26 26 27 27 27 25 25 24 23 23 23 23 23 23 23 24 24 24 25 25 25 26 26 26 26 26 27
27 27 26 26 25 25 25 25 25 25 25 26 26 27 27 27 27 27 27 28 27 27 27 26 24 24 24 24 24 24 25 26 26 26 26 26 27 27 27 27 27 28 28
29 29 28 28 28 27 27 26 27 27 27 28 28 28 28 28 28 28 28 28 28 27 26 27 27 27 26 26 26 26 27 27 27 27 26 27 27 27 28 28 28 29 29
29 30 29 29 29 29 29 29 29 29 29 29 30 30 30 30 29 30 30 29 29 29 28 28 28 27 27 27 28 28 27 27 27 27 27 27 28 28 28 29 29 29 29
31 31 31 32 32 31 31 31 31 31 31 31 32 32 32 31 31 31 31 30 29 29 29 28 28 28 28 28 28 28 28 28 28 28 28 28 28 29 29 29 30 30 30

GEFSMW_500_meanwind_204.txt.gz
Wind_Speed
15 15 16 16 16 15 14 14 13 12 12 11 11 10 9 9 8 6 6 5 4 2 2 1 1 2 2 2 3 4 4 5 5 5 5 6 7 7 8 8 9 9 9
15 15 15 15 16 15 14 13 13 12 12 12 11 10 10 10 10 9 7 6 5 4 3 2 2 2 2 3 3 4 5 5 5 6 6 7 7 7 8 9 9 9 11
13 14 15 15 15 15 15 14 13 12 12 12 12 12 11 11 11 10 9 8 6 5 4 3 3 3 3 4 4 5 5 6 6 6 7 7 8 8 8 9 9 10 11
11 12 13 13 14 14 14 13 13 12 12 13 13 12 11 11 11 10 9 8 7 6 5 5 5 4 5 5 5 5 5 6 7 7 8 8 8 9 9 9 10 10 11
10 10 11 12 12 13 13 13 13 12 12 12 12 12 12 11 11 10 10 9 8 7 6 5 5 6 6 6 6 6 6 7 8 9 9 9 10 10 10 11 11 11 12
8 9 10 11 11 12 12 12 13 12 12 12 12 12 12 12 12 11 10 10 10 9 7 7 6 6 7 7 7 8 8 9 9 10 11 11 11 11 11 12 12 12 13
7 8 9 10 10 11 11 11 12 12 12 13 13 13 12 12 12 12 12 12 11 10 9 8 8 8 8 7 7 8 9 9 9 10 10 11 12 12 12 13 13 14 14
7 8 9 10 10 10 11 10 11 11 12 12 13 14 13 13 12 12 12 12 11 10 10 9 9 8 8 8 8 9 10 9 9 10 10 11 11 12 13 14 14 14 15
6 7 8 9 9 10 10 10 9 10 10 11 12 13 14 14 13 13 13 13 12 12 11 11 10 10 9 10 10 10 11 11 11 11 11 12 12 13 14 14 15 15 15
6 6 7 8 8 9 9 9 8 8 9 10 11 13 14 14 14 14 14 14 13 13 12 12 12 11 10 11 11 11 11 11 11 12 12 12 13 14 15 15 16 16 17
6 6 7 7 7 8 9 8 7 8 9 10 11 13 14 15 15 16 17 16 14 14 14 13 12 12 11 11 11 12 12 12 13 13 13 14 14 15 16 16 17 17 18
7 7 7 7 7 7 8 8 8 8 9 11 12 14 15 16 17 17 17 17 16 16 15 14 14 13 12 12 13 13 13 13 13 14 14 15 15 16 17 17 18 18 18
9 9 8 8 7 8 9 8 9 9 10 11 12 14 16 17 17 18 18 18 18 17 16 15 14 13 13 13 14 14 14 14 14 14 15 15 16 16 17 17 17 18 19
10 9 9 8 8 9 10 10 11 11 11 12 13 15 17 18 18 19 19 19 19 18 17 15 14 14 14 14 15 15 15 15 15 15 16 16 16 16 17 17 18 19 19
12 11 11 10 10 11 11 11 12 12 12 13 14 16 17 18 19 19 20 19 19 19 17 16 15 15 15 15 15 16 16 16 16 16 16 16 17 17 18 18 19 20 20
14 13 12 12 12 12 13 14 13 14 14 15 16 17 18 19 19 19 20 20 19 19 18 16 16 16 16 16 16 16 16 17 17 17 17 17 18 18 19 19 20 21 22
15 14 13 13 13 13 14 15 16 16 16 16 18 19 19 20 20 20 20 20 20 19 19 18 18 18 18 18 18 18 18 18 18 18 18 18 19 20 20 21 22 23 23
17 16 16 15 15 15 15 16 17 17 18 18 19 20 20 20 21 21 21 21 21 21 20 20 20 20 20 20 20 20 19 19 19 19 19 20 20 21 22 22 23 24 24
19 18 18 17 18 18 17 17 18 19 19 20 20 21 21 21 21 22 22 23 23 23 22 22 22 22 22 22 22 21 21 20 20 20 20 21 21 22 23 23 24 25 25
22 21 20 20 20 21 20 20 20 20 21 21 22 22 22 22 23 23 23 24 24 24 24 24 24 23 23 23 22 22 22 21 21 21 22 22 23 23 24 24 24 25 26
23 23 23 23 23 23 23 22 22 22 22 22 24 23 23 23 24 24 24 25 25 25 25 25 25 25 24 24 24 24 23 23 23 23 23 24 24 25 25 25 26 26 26
25 24 24 24 24 25 25 25 25 24 23 24 25 25 25 25 25 25 25 26 26 27 27 27 26 26 25 24 24 25 24 24 24 24 25 25 26 26 26 27 27 27 27
27 26 26 26 27 27 26 26 26 26 26 26 27 27 27 27 27 27 27 27 28 29 29 29 28 27 27 26 26 26 25 25 25 26 26 26 27 27 27 27 28 28 29
29 29 28 28 29 28 27 27 28 28 28 28 28 28 28 28 29 29 29 30 30 30 30 29 28 28 27 27 27 26 27 27 26 27 27 28 28 28 29 28 28 29 29
31 31 31 30 29 29 29 30 29 29 29 29 29 29 29 29 29 30 31 31 31 31 31 30 30 29 29 29 29 28 28 27 27 28 29 29 29 29 29 29 29 29 30
33 33 33 32 32 32 32 31 30 30 30 31 31 31 31 31 31 31 32 32 32 33 32 32 31 31 31 30 30 30 30 29 29 30 30 30 30 30 30 29 30 29 29

GEFSMW_500_meanwind_210.txt.gz
Wind_Speed
15 15 15 14 13 12 12 11 11 11 10 10 10 9 9 9 8 7 5 5 4 3 3 2 1 0 2 2 3 3 4 4 4 5 6 6 6 7 7 8 9 9 9
14 15 14 14 13 13 12 12 11 11 11 10 10 9 9 8 8 7 5 4 4 4 4 3 2 1 1 2 3 3 4 5 5 6 6 7 7 7 8 9 9 10 11
13 14 14 13 13 13 12 11 11 11 11 11 10 10 10 9 8 7 7 6 5 4 4 3 3 2 2 3 4 4 5 5 6 6 7 8 8 9 9 9 10 10 10
12 13 13 13 13 13 12 12 12 11 11 10 10 10 10 10 9 8 8 7 6 6 4 4 4 4 4 4 4 5 6 6 7 7 8 9 10 10 11 11 11 11 12
11 12 12 12 12 12 12 12 12 11 11 11 11 10 10 10 9 9 9 9 8 7 6 6 6 5 5 5 5 6 7 7 8 8 9 10 10 11 11 12 13 13 13
10 10 11 11 11 12 12 12 11 11 11 12 11 11 11 10 10 10 9 9 9 9 8 7 7 6 6 6 6 7 8 8 9 9 10 10 11 11 12 13 14 14 15
9 10 10 10 10 10 11 11 11 11 11 11 11 11 11 11 10 10 11 10 10 10 9 8 8 7 7 7 7 8 8 9 10 10 10 11 11 12 12 13 13 14 15
9 10 9 9 9 9 9 10 10 11 10 10 10 11 11 11 11 11 12 12 12 11 11 9 9 9 9 9 9 9 9 10 10 11 11 12 12 13 13 13 13 14 14
9 10 9 8 8 8 8 9 9 10 10 10 9 10 11 11 11 11 12 13 13 13 11 11 11 10 11 11 11 11 11 11 11 12 12 12 13 13 13 14 14 14 15
9 10 9 8 8 8 8 8 8 9 9 10 9 10 11 12 12 12 12 13 14 14 13 13 12 12 13 12 12 11 12 12 12 12 13 13 14 14 14 15 15 15 16
10 9 9 8 8 8 8 8 7 8 8 9 10 10 11 12 12 13 13 13 14 15 14 14 14 14 14 13 13 13 13 13 13 13 14 14 14 15 15 16 17 17 17
9 9 9 9 8 8 8 8 7 8 8 9 10 10 12 13 13 13 14 14 14 15 15 15 15 15 14 13 14 14 14 14 14 15 15 15 15 15 16 17 18 18 18
10 10 10 10 9 9 8 8 8 8 9 10 10 10 11 13 14 15 16 16 16 15 16 16 16 15 14 14 14 14 15 15 15 15 15 16 16 16 17 17 18 18 18
12 11 11 10 10 10 10 9 9 10 10 11 11 12 12 13 15 16 16 17 17 17 17 17 17 16 15 15 15 15 15 15 16 16 16 16 17 17 18 18 18 18 19
13 12 12 12 12 11 11 11 11 12 12 12 12 13 13 14 15 16 17 17 18 17 17 18 18 17 16 16 16 15 16 16 16 16 17 17 17 18 18 19 19 20 20
16 15 15 15 14 14 14 13 14 14 14 14 15 15 15 15 16 17 18 18 19 19 19 19 19 19 18 17 17 17 17 17 17 17 17 17 17 18 20 20 21 21 22
18 18 17 18 17 17 16 16 16 16 16 16 17 17 17 17 18 18 19 20 20 20 21 20 20 20 20 19 19 19 19 19 18 18 19 19 19 20 21 21 22 22 23
21 20 20 20 20 19 19 18 18 18 18 18 18 18 18 19 19 20 20 21 22 22 22 21 21 21 21 21 21 21 21 21 20 20 21 21 21 22 22 23 23 24 24
22 22 22 22 22 21 21 21 20 20 19 19 19 20 20 20 21 21 21 22 23 23 23 23 23 23 23 23 23 22 22 22 22 22 22 22 22 23 23 24 24 25 25
24 24 24 23 22 23 23 23 22 21 21 22 21 21 21 21 22 22 22 23 24 24 24 25 25 24 23 24 24 23 23 22 23 23 22 23 23 24 24 24 25 25 25
26 26 25 24 24 24 24 24 24 24 24 23 23 23 23 23 24 24 25 25 26 25 26 27 27 26 25 25 25 25 24 23 23 24 23 23 24 24 24 25 25 25 26
28 28 27 26 26 25 25 25 25 26 26 25 26 26 26 27 27 27 27 28 28 27 27 27 27 27 26 26 26 26 25 25 25 24 24 24 24 24 25 26 26 26 26
30 31 30 29 28 28 28 28 28 28 27 27 28 28 29 29 30 30 30 30 31 30 29 29 28 28 28 28 28 27 27 27 27 26 26 26 27 27 27 27 27 28 28
32 31 32 32 30 30 30 30 30 30 30 30 30 30 31 31 32 32 32 32 31 31 31 30 30 29 29 29 29 29 29 28 28 28 28 28 29 29 28 28 28 28 28
33 33 32 32 32 32 32 32 32 33 33 33 33 33 33 33 33 33 33 32 32 32 32 31 30 30 30 30 30 30 30 30 29 29 29 29 29 29 29 29 29 29 29
34 34 34 34 33 34 34 34 35 35 35 35 35 34 34 34 34 34 34 34 33 33 33 32 31 30 31 31 30 31 31 30 30 30 29 30 31 31 31 30 30 29 29

GEFSMW_500_meanwind_216.txt.gz
Wind_Speed
17 17 17 16 15 14 13 12 12 11 11 10 10 9 9 8 8 7 7 6 6 6 5 3 2 2 2 2 2 3 4 4 5 6 6 6 6 6 7 7 8 8 8
15 16 16 16 15 15 14 13 13 12 12 11 11 10 9 9 8 8 8 7 7 6 6 5 4 3 4 4 4 4 5 6 6 6 6 6 7 7 7 9 9 9 10
15 15 15 15 14 14 14 13 13 13 13 12 12 11 11 10 10 10 9 9 8 7 7 7 6 5 5 5 5 5 6 7 7 7 7 7 8 8 8 8 9 10 11
15 14 14 14 13 13 14 13 13 13 13 13 12 12 12 12 11 10 10 10 9 9 8 8 7 7 6 5 6 6 7 7 8 8 8 8 8 9 9 9 10 10 11
14 14 14 13 12 12 12 12 13 13 13 13 13 12 11 11 11 10 10 10 10 10 10 9 9 8 8 7 7 8 8 8 9 9 9 10 10 10 10 11 12 12 13
13 13 13 13 12 11 11 11 11 12 12 12 12 12 12 11 10 10 10 10 10 10 10 11 10 9 8 8 8 8 9 10 10 10 11 11 11 11 12 13 13 14 14
11 13 13 13 12 11 10 11 11 11 11 12 12 12 12 11 11 11 11 11 11 11 11 11 11 10 9 9 9 10 10 10 11 11 12 12 13 13 13 14 15 15 15
10 12 13 12 11 10 10 10 10 10 11 11 11 12 12 12 12 12 12 12 11 12 12 12 12 12 11 10 10 11 11 11 12 12 12 13 14 14 15 15 15 15 16
8 10 11 11 10 10 9 9 10 10 10 11 11 11 12 12 12 12 13 13 13 13 13 13 14 13 13 13 12 12 12 12 12 13 13 14 14 15 15 15 16 16 17
8 9 11 11 10 10 10 10 10 10 10 10 11 11 12 12 12 11 12 14 15 15 15 15 15 15 15 14 14 14 14 14 14 14 14 15 15 16 16 16 16 17 18
9 8 10 10 9 9 10 10 11 10 10 11 11 12 12 12 12 13 13 14 15 16 17 17 16 16 16 16 16 15 15 15 15 15 15 15 15 16 17 17 18 18 19
9 9 9 9 9 9 11 11 11 11 11 11 12 12 13 13 13 13 15 15 16 18 18 18 18 17 17 17 17 16 16 16 16 16 16 16 17 17 18 18 18 19 19
10 9 9 10 9 9 10 11 11 11 12 12 12 13 14 15 15 15 16 17 18 18 19 19 19 18 18 18 18 18 18 17 17 17 17 17 18 18 19 19 20 20 21
12 11 10 11 11 11 11 11 12 12 12 12 13 13 15 16 16 16 17 18 18 19 19 19 19 19 19 19 19 19 19 19 19 18 18 19 19 19 20 20 21 21 22
15 13 12 12 12 12 12 12 12 13 13 13 14 15 15 16 17 18 18 19 19 20 20 20 20 20 20 21 21 21 21 20 20 20 20 20 20 20 20 21 22 22 22
17 16 15 15 15 14 14 14 14 15 15 15 15 16 16 17 18 18 19 20 20 21 22 21 21 22 22 22 23 22 22 21 21 21 21 21 21 22 22 22 23 24 24
21 20 19 18 18 17 17 17 16 17 17 17 17 17 18 18 19 20 20 21 22 22 23 23 23 23 23 23 24 24 23 23 22 22 22 22 23 23 23 24 25 26 26
23 22 23 22 21 21 20 19 19 19 19 19 19 19 20 20 21 21 22 22 23 24 25 25 24 24 24 24 25 25 25 24 24 24 24 25 25 25 26 26 26 26 27
26 26 25 24 24 23 23 22 21 21 21 21 22 22 22 22 23 23 23 24 25 26 26 26 26 26 26 27 27 27 27 26 25 25 26 26 27 27 27 28 28 28 28
28 27 28 27 26 26 25 25 25 24 24 24 24 24 24 25 25 26 26 27 27 27 27 28 28 28 29 29 29 29 28 28 27 27 28 28 28 28 28 29 29 28 28
29 29 29 29 28 28 27 27 26 26 26 26 26 26 26 27 27 28 28 28 29 29 29 29 30 30 30 30 30 30 30 30 29 29 29 28 28 28 30 29 29 28 29
31 31 30 30 29 29 29 29 28 27 27 27 28 27 28 28 29 29 29 29 30 31 32 32 32 32 32 32 31 31 31 31 31 31 30 30 29 30 30 29 29 29 29
32 32 31 31 32 32 31 31 30 29 29 29 29 29 30 30 30 30 30 31 32 33 33 33 33 32 33 32 32 32 32 32 32 31 31 31 30 30 30 30 30 29 29
34 33 33 33 33 33 32 32 32 31 30 30 31 31 31 32 32 33 33 33 33 34 34 34 34 33 33 33 34 34 34 33 33 33 33 32 32 31 30 31 31 31 30
35 34 34 35 34 34 33 33 33 34 33 33 33 33 34 34 34 34 35 35 36 35 35 35 35 35 35 35 35 35 34 34 34 34 34 33 33 32 31 31 31 32 31
36 35 35 35 35 35 35 35 35 35 34 35 35 36 36 36 36 37 38 38 38 37 37 37 37 37 37 37 37 36 35 35 34 34 34 34 33 33 32 32 32 32 31